Time,TemperatureF,DewpointF,PressureIn,WindDirection,WindDirectionDegrees,WindSpeedMPH,WindSpeedGustMPH,Humidity,HourlyPrecipIn,Conditions,Clouds,dailyrainin,SoftwareType,DateUTC
2013-08-30 00:01:00,70.1,68.0,29.94,SSE,158,0.0,0.0,93,0.00,,,0.00,Wunderground v.1.15,2013-08-30 05:01:00,
2013-08-30 00:02:00,70.0,67.9,29.93,SSE,158,0.0,0.0,93,0.00,,,0.00,Wunderground v.1.15,2013-08-30 05:02:00,
2013-08-30 00:03:00,70.0,67.9,29.93,SSE,158,0.0,0.0,93,0.00,,,0.00,Wunderground v.1.15,2013-08-30 05:03:00,
2013-08-30 00:04:00,70.0,68.2,29.93,SSE,158,0.0,0.0,94,0.00,,,0.00,Wunderground v.1.15,2013-08-30 05:04:00,
2013-08-30 00:06:00,70.0,68.2,29.93,SSE,158,0.0,0.0,94,0.00,,,0.00,Wunderground v.1.15,2013-08-30 05:06:00,
2013-08-30 00:10:00,70.0,68.2,29.93,SSE,158,0.0,0.0,94,0.00,,,0.00,Wunderground v.1.15,2013-08-30 05:10:00,
2013-08-30 00:11:00,70.0,67.9,29.93,SSE,158,0.0,0.0,93,0.00,,,0.00,Wunderground v.1.15,2013-08-30 05:11:00,
2013-08-30 00:12:00,70.0,67.9,29.93,SSE,158,0.0,0.0,93,0.00,,,0.00,Wunderground v.1.15,2013-08-30 05:12:00,
2013-08-30 00:15:00,70.0,68.2,29.94,SSE,158,0.0,0.0,94,0.00,,,0.00,Wunderground v.1.15,2013-08-30 05:15:00,
2013-08-30 00:16:00,70.0,68.2,29.94,SSE,158,0.0,0.0,94,0.00,,,0.00,Wunderground v.1.15,2013-08-30 05:16:00,
2013-08-30 00:18:00,70.0,68.2,29.94,SSE,158,0.0,0.0,94,0.00,,,0.00,Wunderground v.1.15,2013-08-30 05:18:00,
2013-08-30 00:19:00,70.0,68.2,29.94,SSE,158,0.0,0.0,94,0.00,,,0.00,Wunderground v.1.15,2013-08-30 05:19:00,
2013-08-30 00:21:00,69.9,68.1,29.93,SSE,158,0.0,0.0,94,0.00,,,0.00,Wunderground v.1.15,2013-08-30 05:21:00,
2013-08-30 00:22:00,69.9,68.1,29.93,SSE,158,0.0,0.0,94,0.00,,,0.00,Wunderground v.1.15,2013-08-30 05:22:00,
2013-08-30 00:24:00,69.9,68.1,29.93,SSE,158,0.0,0.0,94,0.00,,,0.00,Wunderground v.1.15,2013-08-30 05:24:00,
2013-08-30 00:25:00,69.9,68.1,29.93,SSE,158,0.0,0.0,94,0.00,,,0.00,Wunderground v.1.15,2013-08-30 05:25:00,
2013-08-30 00:26:00,69.8,68.0,29.93,SSE,158,0.0,0.0,94,0.00,,,0.00,Wunderground v.1.15,2013-08-30 05:26:00,
2013-08-30 00:28:00,69.8,68.0,29.93,SSE,158,0.0,0.0,94,0.00,,,0.00,Wunderground v.1.15,2013-08-30 05:28:00,
2013-08-30 00:30:00,69.7,67.9,29.93,SSE,158,0.0,0.0,94,0.00,,,0.00,Wunderground v.1.15,2013-08-30 05:30:00,
2013-08-30 00:32:00,69.6,67.5,29.93,SSE,158,0.0,0.0,93,0.00,,,0.00,Wunderground v.1.15,2013-08-30 05:32:00,
2013-08-30 00:33:00,69.6,67.8,29.93,SSE,158,0.0,0.0,94,0.00,,,0.00,Wunderground v.1.15,2013-08-30 05:33:00,
2013-08-30 00:37:00,69.5,67.7,29.93,SSE,158,0.0,0.0,94,0.00,,,0.00,Wunderground v.1.15,2013-08-30 05:37:00,
2013-08-30 00:38:00,69.4,67.6,29.93,SSE,158,0.0,0.0,94,0.00,,,0.00,Wunderground v.1.15,2013-08-30 05:38:00,
2013-08-30 00:39:00,69.4,67.6,29.93,SSE,158,0.0,0.0,94,0.00,,,0.00,Wunderground v.1.15,2013-08-30 05:39:00,
2013-08-30 00:42:00,69.2,67.1,29.93,SSE,158,0.0,0.0,93,0.00,,,0.00,Wunderground v.1.15,2013-08-30 05:42:00,
2013-08-30 00:44:00,69.1,67.0,29.93,SSE,158,0.0,0.0,93,0.00,,,0.00,Wunderground v.1.15,2013-08-30 05:44:00,
2013-08-30 00:47:00,69.0,66.9,29.93,SSE,158,0.0,0.0,93,0.00,,,0.00,Wunderground v.1.15,2013-08-30 05:47:00,
2013-08-30 00:51:00,68.9,67.1,29.93,SSE,158,0.0,0.0,94,0.00,,,0.00,Wunderground v.1.15,2013-08-30 05:51:00,
2013-08-30 00:52:00,68.9,67.1,29.93,SSE,158,0.0,0.0,94,0.00,,,0.00,Wunderground v.1.15,2013-08-30 05:52:00,
2013-08-30 00:54:00,68.9,67.1,29.93,SSE,158,0.0,0.0,94,0.00,,,0.00,Wunderground v.1.15,2013-08-30 05:54:00,
2013-08-30 00:55:00,68.9,67.1,29.93,SSE,158,0.0,0.0,94,0.00,,,0.00,Wunderground v.1.15,2013-08-30 05:55:00,
2013-08-30 00:56:00,68.9,67.1,29.93,SSE,158,0.0,0.0,94,0.00,,,0.00,Wunderground v.1.15,2013-08-30 05:56:00,
2013-08-30 00:58:00,68.9,67.1,29.93,SSE,158,0.0,0.0,94,0.00,,,0.00,Wunderground v.1.15,2013-08-30 05:58:00,
2013-08-30 01:00:00,68.9,67.1,29.93,SSE,158,0.0,0.0,94,0.00,,,0.00,Wunderground v.1.15,2013-08-30 06:00:00,
2013-08-30 01:03:00,68.9,67.1,29.92,SSE,158,0.0,0.0,94,0.00,,,0.00,Wunderground v.1.15,2013-08-30 06:03:00,
2013-08-30 01:05:00,68.9,67.1,29.93,SSE,158,0.0,0.0,94,0.00,,,0.00,Wunderground v.1.15,2013-08-30 06:05:00,
2013-08-30 01:06:00,69.0,67.5,29.92,SSE,158,0.0,0.0,95,0.00,,,0.00,Wunderground v.1.15,2013-08-30 06:06:00,
2013-08-30 01:07:00,69.0,67.5,29.93,SSE,158,0.0,0.0,95,0.00,,,0.00,Wunderground v.1.15,2013-08-30 06:07:00,
2013-08-30 01:09:00,69.2,67.7,29.92,SSE,158,0.0,0.0,95,0.00,,,0.00,Wunderground v.1.15,2013-08-30 06:09:00,
2013-08-30 01:10:00,69.2,67.7,29.92,SSE,158,0.0,0.0,95,0.00,,,0.00,Wunderground v.1.15,2013-08-30 06:10:00,
2013-08-30 01:13:00,69.3,67.8,29.92,SSE,158,0.0,0.0,95,0.00,,,0.00,Wunderground v.1.15,2013-08-30 06:13:00,
2013-08-30 01:17:00,69.3,67.5,29.92,SSE,158,0.0,0.0,94,0.00,,,0.00,Wunderground v.1.15,2013-08-30 06:17:00,
2013-08-30 01:19:00,69.3,67.8,29.92,SSE,158,0.0,0.0,95,0.00,,,0.00,Wunderground v.1.15,2013-08-30 06:19:00,
2013-08-30 01:20:00,69.3,67.8,29.92,SSE,158,0.0,0.0,95,0.00,,,0.00,Wunderground v.1.15,2013-08-30 06:20:00,
2013-08-30 01:21:00,69.4,67.9,29.92,SSE,158,0.0,0.0,95,0.00,,,0.00,Wunderground v.1.15,2013-08-30 06:21:00,
2013-08-30 01:24:00,69.5,68.0,29.92,SSE,158,0.0,0.0,95,0.00,,,0.00,Wunderground v.1.15,2013-08-30 06:24:00,
2013-08-30 01:27:00,69.5,68.0,29.92,SSE,158,0.0,0.0,95,0.00,,,0.00,Wunderground v.1.15,2013-08-30 06:27:00,
2013-08-30 01:28:00,69.6,68.1,29.92,SSE,158,0.0,0.0,95,0.00,,,0.00,Wunderground v.1.15,2013-08-30 06:28:00,
2013-08-30 01:29:00,69.6,68.1,29.92,SSE,158,0.0,0.0,95,0.00,,,0.00,Wunderground v.1.15,2013-08-30 06:29:00,
2013-08-30 01:31:00,69.7,68.2,29.92,SSE,158,0.0,0.0,95,0.00,,,0.00,Wunderground v.1.15,2013-08-30 06:31:00,
2013-08-30 01:36:00,69.8,68.3,29.92,SSE,158,0.0,0.0,95,0.00,,,0.00,Wunderground v.1.15,2013-08-30 06:36:00,
2013-08-30 01:38:00,69.8,68.3,29.92,SSE,158,0.0,0.0,95,0.00,,,0.00,Wunderground v.1.15,2013-08-30 06:38:00,
2013-08-30 01:39:00,69.8,68.3,29.92,SSE,158,0.0,0.0,95,0.00,,,0.00,Wunderground v.1.15,2013-08-30 06:39:00,
2013-08-30 01:41:00,69.9,68.4,29.92,SSE,158,0.0,0.0,95,0.00,,,0.00,Wunderground v.1.15,2013-08-30 06:41:00,
2013-08-30 01:43:00,69.9,68.4,29.92,SSE,158,0.0,0.0,95,0.00,,,0.00,Wunderground v.1.15,2013-08-30 06:43:00,
2013-08-30 01:45:00,69.9,68.4,29.92,SSE,158,0.0,0.0,95,0.00,,,0.00,Wunderground v.1.15,2013-08-30 06:45:00,
2013-08-30 01:47:00,70.0,68.5,29.92,SSE,158,0.0,0.0,95,0.00,,,0.00,Wunderground v.1.15,2013-08-30 06:47:00,
2013-08-30 01:48:00,70.0,68.5,29.92,SSE,158,0.0,0.0,95,0.00,,,0.00,Wunderground v.1.15,2013-08-30 06:48:00,
2013-08-30 01:50:00,70.1,68.6,29.92,SSE,158,0.0,0.0,95,0.00,,,0.00,Wunderground v.1.15,2013-08-30 06:50:00,
2013-08-30 01:54:00,70.0,68.5,29.92,SSE,158,0.0,0.0,95,0.00,,,0.00,Wunderground v.1.15,2013-08-30 06:54:00,
2013-08-30 01:55:00,70.0,68.5,29.92,SSE,158,0.0,0.0,95,0.00,,,0.00,Wunderground v.1.15,2013-08-30 06:55:00,
2013-08-30 01:56:00,70.0,68.5,29.92,SSE,158,0.0,0.0,95,0.00,,,0.00,Wunderground v.1.15,2013-08-30 06:56:00,
2013-08-30 01:59:00,69.9,68.4,29.92,SSE,158,0.0,0.0,95,0.00,,,0.00,Wunderground v.1.15,2013-08-30 06:59:00,
2013-08-30 02:02:00,69.9,68.1,29.92,SSE,158,0.0,0.0,94,0.00,,,0.00,Wunderground v.1.15,2013-08-30 07:02:00,
2013-08-30 02:04:00,69.8,68.0,29.92,SSE,158,0.0,0.0,94,0.00,,,0.00,Wunderground v.1.15,2013-08-30 07:04:00,
2013-08-30 02:06:00,69.8,68.3,29.92,SSE,158,0.0,0.0,95,0.00,,,0.00,Wunderground v.1.15,2013-08-30 07:06:00,
2013-08-30 02:09:00,69.8,68.3,29.92,SSE,158,0.0,0.0,95,0.00,,,0.00,Wunderground v.1.15,2013-08-30 07:09:00,
2013-08-30 02:10:00,69.8,68.3,29.92,SSE,158,0.0,0.0,95,0.00,,,0.00,Wunderground v.1.15,2013-08-30 07:10:00,
2013-08-30 02:11:00,69.8,68.3,29.92,SSE,158,0.0,2.0,95,0.00,,,0.00,Wunderground v.1.15,2013-08-30 07:11:00,
2013-08-30 02:15:00,69.8,68.3,29.92,SSE,158,0.0,2.0,95,0.00,,,0.00,Wunderground v.1.15,2013-08-30 07:15:00,
2013-08-30 02:17:00,69.7,68.2,29.92,SSE,158,0.0,2.0,95,0.00,,,0.00,Wunderground v.1.15,2013-08-30 07:17:00,
2013-08-30 02:18:00,69.8,68.3,29.92,SSE,158,0.0,2.0,95,0.00,,,0.00,Wunderground v.1.15,2013-08-30 07:18:00,
2013-08-30 02:20:00,69.7,68.2,29.92,SSE,158,0.0,0.0,95,0.00,,,0.00,Wunderground v.1.15,2013-08-30 07:20:00,
2013-08-30 02:21:00,69.7,68.2,29.92,SSE,158,0.0,0.0,95,0.00,,,0.00,Wunderground v.1.15,2013-08-30 07:21:00,
2013-08-30 02:22:00,69.7,68.2,29.92,SSE,158,0.0,0.0,95,0.00,,,0.00,Wunderground v.1.15,2013-08-30 07:22:00,
2013-08-30 02:23:00,69.7,68.2,29.92,SSE,158,0.0,0.0,95,0.00,,,0.00,Wunderground v.1.15,2013-08-30 07:23:00,
2013-08-30 02:24:00,69.7,68.2,29.92,SSE,158,0.0,0.0,95,0.00,,,0.00,Wunderground v.1.15,2013-08-30 07:24:00,
2013-08-30 02:28:00,69.6,67.8,29.92,SSE,158,0.0,0.0,94,0.00,,,0.00,Wunderground v.1.15,2013-08-30 07:28:00,
2013-08-30 02:31:00,69.6,68.1,29.91,SSE,158,0.0,2.0,95,0.00,,,0.00,Wunderground v.1.15,2013-08-30 07:31:00,
2013-08-30 02:33:00,69.6,68.1,29.91,SSE,158,0.0,2.0,95,0.00,,,0.00,Wunderground v.1.15,2013-08-30 07:33:00,
2013-08-30 02:34:00,69.7,68.2,29.92,SSE,158,0.0,2.0,95,0.00,,,0.00,Wunderground v.1.15,2013-08-30 07:34:00,
2013-08-30 02:38:00,69.8,68.3,29.91,SSE,158,0.0,2.0,95,0.00,,,0.00,Wunderground v.1.15,2013-08-30 07:38:00,
2013-08-30 02:39:00,69.9,68.4,29.92,SSE,158,0.0,2.0,95,0.00,,,0.00,Wunderground v.1.15,2013-08-30 07:39:00,
2013-08-30 02:41:00,70.0,68.5,29.91,SSE,158,0.0,0.0,95,0.00,,,0.00,Wunderground v.1.15,2013-08-30 07:41:00,
2013-08-30 02:42:00,70.0,68.5,29.91,SSE,158,0.0,0.0,95,0.00,,,0.00,Wunderground v.1.15,2013-08-30 07:42:00,
2013-08-30 02:44:00,70.1,68.6,29.92,SSE,158,0.0,0.0,95,0.00,,,0.00,Wunderground v.1.15,2013-08-30 07:44:00,
2013-08-30 02:47:00,70.1,68.3,29.92,SSE,158,0.0,0.0,94,0.00,,,0.00,Wunderground v.1.15,2013-08-30 07:47:00,
2013-08-30 02:48:00,70.2,68.7,29.92,SSE,158,0.0,0.0,95,0.00,,,0.00,Wunderground v.1.15,2013-08-30 07:48:00,
2013-08-30 02:49:00,70.2,68.4,29.91,SSE,158,0.0,0.0,94,0.00,,,0.00,Wunderground v.1.15,2013-08-30 07:49:00,
2013-08-30 02:53:00,70.3,68.5,29.91,SSE,158,0.0,0.0,94,0.00,,,0.00,Wunderground v.1.15,2013-08-30 07:53:00,
2013-08-30 02:54:00,70.3,68.5,29.91,SSE,158,0.0,0.0,94,0.00,,,0.00,Wunderground v.1.15,2013-08-30 07:54:00,
2013-08-30 02:56:00,70.3,68.5,29.91,SSE,158,0.0,0.0,94,0.00,,,0.00,Wunderground v.1.15,2013-08-30 07:56:00,
2013-08-30 02:58:00,70.3,68.5,29.91,SSE,158,0.0,0.0,94,0.00,,,0.00,Wunderground v.1.15,2013-08-30 07:58:00,
2013-08-30 02:59:00,70.3,68.5,29.91,SSE,158,0.0,0.0,94,0.00,,,0.00,Wunderground v.1.15,2013-08-30 07:59:00,
2013-08-30 03:01:00,70.3,68.5,29.91,SSE,158,0.0,0.0,94,0.00,,,0.00,Wunderground v.1.15,2013-08-30 08:01:00,
2013-08-30 03:03:00,70.3,68.5,29.91,SSE,158,0.0,0.0,94,0.00,,,0.00,Wunderground v.1.15,2013-08-30 08:03:00,
2013-08-30 03:04:00,70.2,68.4,29.91,SSE,158,0.0,0.0,94,0.00,,,0.00,Wunderground v.1.15,2013-08-30 08:04:00,
2013-08-30 03:05:00,70.2,68.4,29.91,SSE,158,0.0,0.0,94,0.00,,,0.00,Wunderground v.1.15,2013-08-30 08:05:00,
2013-08-30 03:08:00,70.2,68.4,29.91,SSE,158,0.0,0.0,94,0.00,,,0.00,Wunderground v.1.15,2013-08-30 08:08:00,
2013-08-30 03:10:00,70.2,68.4,29.91,SSE,158,0.0,0.0,94,0.00,,,0.00,Wunderground v.1.15,2013-08-30 08:10:00,
2013-08-30 03:12:00,70.2,68.4,29.91,SSE,158,0.0,0.0,94,0.00,,,0.00,Wunderground v.1.15,2013-08-30 08:12:00,
2013-08-30 03:14:00,70.1,68.3,29.91,SSE,158,0.0,0.0,94,0.00,,,0.00,Wunderground v.1.15,2013-08-30 08:14:00,
2013-08-30 03:17:00,70.1,68.3,29.91,SSE,158,0.0,0.0,94,0.00,,,0.00,Wunderground v.1.15,2013-08-30 08:17:00,
2013-08-30 03:18:00,70.1,68.3,29.91,SSE,158,0.0,0.0,94,0.00,,,0.00,Wunderground v.1.15,2013-08-30 08:18:00,
2013-08-30 03:22:00,70.0,68.2,29.91,SSE,158,0.0,0.0,94,0.00,,,0.00,Wunderground v.1.15,2013-08-30 08:22:00,
2013-08-30 03:25:00,69.9,68.1,29.91,SSE,158,0.0,0.0,94,0.00,,,0.00,Wunderground v.1.15,2013-08-30 08:25:00,
2013-08-30 03:27:00,69.9,68.1,29.91,SSE,158,0.0,0.0,94,0.00,,,0.00,Wunderground v.1.15,2013-08-30 08:27:00,
2013-08-30 03:28:00,69.9,68.1,29.91,SSE,158,0.0,0.0,94,0.00,,,0.00,Wunderground v.1.15,2013-08-30 08:28:00,
2013-08-30 03:30:00,69.9,68.1,29.91,SSE,158,0.0,0.0,94,0.00,,,0.00,Wunderground v.1.15,2013-08-30 08:30:00,
2013-08-30 03:32:00,70.0,68.2,29.91,SSE,158,0.0,0.0,94,0.00,,,0.00,Wunderground v.1.15,2013-08-30 08:32:00,
2013-08-30 03:36:00,70.0,68.2,29.91,SSE,158,0.0,0.0,94,0.00,,,0.00,Wunderground v.1.15,2013-08-30 08:36:00,
2013-08-30 03:37:00,70.0,68.2,29.91,SSE,158,0.0,0.0,94,0.00,,,0.00,Wunderground v.1.15,2013-08-30 08:37:00,
2013-08-30 03:42:00,70.0,68.2,29.91,SSE,158,0.0,0.0,94,0.00,,,0.00,Wunderground v.1.15,2013-08-30 08:42:00,
2013-08-30 03:43:00,70.0,68.2,29.91,SSE,158,0.0,0.0,94,0.00,,,0.00,Wunderground v.1.15,2013-08-30 08:43:00,
2013-08-30 03:44:00,70.0,68.2,29.91,SSE,158,0.0,0.0,94,0.00,,,0.00,Wunderground v.1.15,2013-08-30 08:44:00,
2013-08-30 03:47:00,70.0,68.2,29.91,SSE,158,0.0,0.0,94,0.00,,,0.00,Wunderground v.1.15,2013-08-30 08:47:00,
2013-08-30 03:48:00,69.9,68.1,29.91,SSE,158,0.0,0.0,94,0.00,,,0.00,Wunderground v.1.15,2013-08-30 08:48:00,
2013-08-30 03:49:00,69.9,68.1,29.91,SSE,158,0.0,0.0,94,0.00,,,0.00,Wunderground v.1.15,2013-08-30 08:49:00,
2013-08-30 03:53:00,69.9,68.1,29.91,SSE,158,0.0,0.0,94,0.00,,,0.00,Wunderground v.1.15,2013-08-30 08:53:00,
2013-08-30 03:55:00,69.9,68.1,29.91,SSE,158,0.0,0.0,94,0.00,,,0.00,Wunderground v.1.15,2013-08-30 08:55:00,
2013-08-30 03:56:00,69.9,68.1,29.91,SSE,158,0.0,0.0,94,0.00,,,0.00,Wunderground v.1.15,2013-08-30 08:56:00,
2013-08-30 04:00:00,69.8,68.0,29.91,SSE,158,0.0,0.0,94,0.00,,,0.00,Wunderground v.1.15,2013-08-30 09:00:00,
2013-08-30 04:01:00,69.8,68.0,29.91,SSE,158,0.0,0.0,94,0.00,,,0.00,Wunderground v.1.15,2013-08-30 09:01:00,
2013-08-30 04:02:00,69.7,67.9,29.91,SSE,158,0.0,0.0,94,0.00,,,0.00,Wunderground v.1.15,2013-08-30 09:02:00,
2013-08-30 04:04:00,69.7,67.9,29.90,SSE,158,0.0,0.0,94,0.00,,,0.00,Wunderground v.1.15,2013-08-30 09:04:00,
2013-08-30 04:05:00,69.7,67.9,29.90,SSE,158,0.0,0.0,94,0.00,,,0.00,Wunderground v.1.15,2013-08-30 09:05:00,
2013-08-30 04:06:00,69.6,67.8,29.90,SSE,158,0.0,0.0,94,0.00,,,0.00,Wunderground v.1.15,2013-08-30 09:06:00,
2013-08-30 04:07:00,69.6,67.8,29.90,SSE,158,0.0,0.0,94,0.00,,,0.00,Wunderground v.1.15,2013-08-30 09:07:00,
2013-08-30 04:09:00,69.6,67.8,29.90,SSE,158,0.0,0.0,94,0.00,,,0.00,Wunderground v.1.15,2013-08-30 09:09:00,
2013-08-30 04:10:00,69.6,67.8,29.90,SSE,158,0.0,0.0,94,0.00,,,0.00,Wunderground v.1.15,2013-08-30 09:10:00,
2013-08-30 04:12:00,69.6,67.8,29.90,SSE,158,0.0,0.0,94,0.00,,,0.00,Wunderground v.1.15,2013-08-30 09:12:00,
2013-08-30 04:14:00,69.5,67.7,29.90,SSE,158,0.0,0.0,94,0.00,,,0.00,Wunderground v.1.15,2013-08-30 09:14:00,
2013-08-30 04:15:00,69.5,67.7,29.90,SSE,158,0.0,0.0,94,0.00,,,0.00,Wunderground v.1.15,2013-08-30 09:15:00,
2013-08-30 04:19:00,69.3,67.5,29.89,SSE,158,0.0,0.0,94,0.00,,,0.00,Wunderground v.1.15,2013-08-30 09:19:00,
2013-08-30 04:20:00,69.3,67.5,29.89,SSE,158,0.0,0.0,94,0.00,,,0.00,Wunderground v.1.15,2013-08-30 09:20:00,
2013-08-30 04:21:00,69.2,67.4,29.89,SSE,158,0.0,0.0,94,0.00,,,0.00,Wunderground v.1.15,2013-08-30 09:21:00,
2013-08-30 04:23:00,69.2,67.4,29.89,SSE,158,0.0,0.0,94,0.00,,,0.00,Wunderground v.1.15,2013-08-30 09:23:00,
2013-08-30 04:26:00,69.2,67.4,29.89,SSE,158,0.0,0.0,94,0.00,,,0.00,Wunderground v.1.15,2013-08-30 09:26:00,
2013-08-30 04:28:00,69.2,67.4,29.89,SSE,158,0.0,0.0,94,0.00,,,0.00,Wunderground v.1.15,2013-08-30 09:28:00,
2013-08-30 04:30:00,69.2,67.4,29.89,SSE,158,0.0,0.0,94,0.00,,,0.00,Wunderground v.1.15,2013-08-30 09:30:00,
2013-08-30 04:31:00,69.2,67.4,29.89,SSE,158,0.0,0.0,94,0.00,,,0.00,Wunderground v.1.15,2013-08-30 09:31:00,
2013-08-30 04:32:00,69.2,67.4,29.89,SSE,158,0.0,0.0,94,0.00,,,0.00,Wunderground v.1.15,2013-08-30 09:32:00,
2013-08-30 04:35:00,69.2,67.4,29.89,SSE,158,0.0,0.0,94,0.00,,,0.00,Wunderground v.1.15,2013-08-30 09:35:00,
2013-08-30 04:36:00,69.2,67.4,29.89,SSE,158,0.0,0.0,94,0.00,,,0.00,Wunderground v.1.15,2013-08-30 09:36:00,
2013-08-30 04:38:00,69.2,67.4,29.89,SSE,158,0.0,0.0,94,0.00,,,0.00,Wunderground v.1.15,2013-08-30 09:38:00,
2013-08-30 04:42:00,69.2,67.4,29.89,SSE,158,0.0,0.0,94,0.00,,,0.00,Wunderground v.1.15,2013-08-30 09:42:00,
2013-08-30 04:43:00,69.2,67.4,29.89,SSE,158,0.0,0.0,94,0.00,,,0.00,Wunderground v.1.15,2013-08-30 09:43:00,
2013-08-30 04:44:00,69.2,67.4,29.89,SSE,158,0.0,0.0,94,0.00,,,0.00,Wunderground v.1.15,2013-08-30 09:44:00,
2013-08-30 04:46:00,69.3,67.8,29.89,SSE,158,0.0,0.0,95,0.00,,,0.00,Wunderground v.1.15,2013-08-30 09:46:00,
2013-08-30 04:50:00,69.3,67.8,29.89,SSE,158,0.0,0.0,95,0.00,,,0.00,Wunderground v.1.15,2013-08-30 09:50:00,
2013-08-30 04:51:00,69.3,67.5,29.88,SSE,158,0.0,0.0,94,0.00,,,0.00,Wunderground v.1.15,2013-08-30 09:51:00,
2013-08-30 04:52:00,69.3,67.5,29.88,SSE,158,0.0,0.0,94,0.00,,,0.00,Wunderground v.1.15,2013-08-30 09:52:00,
2013-08-30 04:53:00,69.3,67.5,29.89,SSE,158,0.0,0.0,94,0.00,,,0.00,Wunderground v.1.15,2013-08-30 09:53:00,
2013-08-30 04:56:00,69.3,67.5,29.89,SSE,158,0.0,0.0,94,0.00,,,0.00,Wunderground v.1.15,2013-08-30 09:56:00,
2013-08-30 04:57:00,69.3,67.5,29.88,SSE,158,0.0,0.0,94,0.00,,,0.00,Wunderground v.1.15,2013-08-30 09:57:00,
2013-08-30 04:58:00,69.3,67.5,29.88,SSE,158,0.0,0.0,94,0.00,,,0.00,Wunderground v.1.15,2013-08-30 09:58:00,
2013-08-30 05:01:00,69.2,67.4,29.88,SSE,158,0.0,0.0,94,0.00,,,0.00,Wunderground v.1.15,2013-08-30 10:01:00,
2013-08-30 05:03:00,69.2,67.4,29.88,SSE,158,0.0,0.0,94,0.00,,,0.00,Wunderground v.1.15,2013-08-30 10:03:00,
2013-08-30 05:04:00,69.2,67.4,29.88,SSE,158,0.0,0.0,94,0.00,,,0.00,Wunderground v.1.15,2013-08-30 10:04:00,
2013-08-30 05:05:00,69.2,67.4,29.88,SSE,158,0.0,0.0,94,0.00,,,0.00,Wunderground v.1.15,2013-08-30 10:05:00,
2013-08-30 05:08:00,69.2,67.4,29.88,SSE,158,0.0,0.0,94,0.00,,,0.00,Wunderground v.1.15,2013-08-30 10:08:00,
2013-08-30 05:09:00,69.2,67.7,29.88,SSE,158,0.0,0.0,95,0.00,,,0.00,Wunderground v.1.15,2013-08-30 10:09:00,
2013-08-30 05:14:00,69.1,67.6,29.88,SSE,158,0.0,0.0,95,0.00,,,0.00,Wunderground v.1.15,2013-08-30 10:14:00,
2013-08-30 05:15:00,69.1,67.6,29.88,SSE,158,0.0,0.0,95,0.00,,,0.00,Wunderground v.1.15,2013-08-30 10:15:00,
2013-08-30 05:18:00,69.1,67.6,29.88,SSE,158,0.0,0.0,95,0.00,,,0.00,Wunderground v.1.15,2013-08-30 10:18:00,
2013-08-30 05:22:00,69.0,67.5,29.88,SSE,158,0.0,0.0,95,0.00,,,0.00,Wunderground v.1.15,2013-08-30 10:22:00,
2013-08-30 05:23:00,69.0,67.5,29.88,SSE,158,0.0,0.0,95,0.00,,,0.00,Wunderground v.1.15,2013-08-30 10:23:00,
2013-08-30 05:24:00,69.0,67.5,29.88,SSE,158,0.0,0.0,95,0.00,,,0.00,Wunderground v.1.15,2013-08-30 10:24:00,
2013-08-30 05:27:00,69.0,67.5,29.88,SSE,158,0.0,0.0,95,0.00,,,0.00,Wunderground v.1.15,2013-08-30 10:27:00,
2013-08-30 05:29:00,69.0,67.5,29.88,SSE,158,0.0,0.0,95,0.00,,,0.00,Wunderground v.1.15,2013-08-30 10:29:00,
2013-08-30 05:30:00,69.0,67.5,29.88,SSE,158,0.0,0.0,95,0.00,,,0.00,Wunderground v.1.15,2013-08-30 10:30:00,
2013-08-30 05:33:00,69.1,67.6,29.87,SSE,158,0.0,0.0,95,0.00,,,0.00,Wunderground v.1.15,2013-08-30 10:33:00,
2013-08-30 05:35:00,69.1,67.6,29.88,SSE,158,0.0,0.0,95,0.00,,,0.00,Wunderground v.1.15,2013-08-30 10:35:00,
2013-08-30 05:36:00,69.1,67.6,29.87,SSE,158,0.0,0.0,95,0.00,,,0.00,Wunderground v.1.15,2013-08-30 10:36:00,
2013-08-30 05:38:00,69.1,67.6,29.87,SSE,158,0.0,0.0,95,0.00,,,0.00,Wunderground v.1.15,2013-08-30 10:38:00,
2013-08-30 05:40:00,69.1,67.6,29.88,SSE,158,0.0,0.0,95,0.00,,,0.00,Wunderground v.1.15,2013-08-30 10:40:00,
2013-08-30 05:41:00,69.1,67.6,29.87,SSE,158,0.0,0.0,95,0.00,,,0.00,Wunderground v.1.15,2013-08-30 10:41:00,
2013-08-30 05:42:00,69.1,67.6,29.87,SSE,158,0.0,0.0,95,0.00,,,0.00,Wunderground v.1.15,2013-08-30 10:42:00,
2013-08-30 05:44:00,69.1,67.6,29.87,SSE,158,0.0,0.0,95,0.00,,,0.00,Wunderground v.1.15,2013-08-30 10:44:00,
2013-08-30 05:45:00,69.1,67.6,29.87,SSE,158,0.0,0.0,95,0.00,,,0.00,Wunderground v.1.15,2013-08-30 10:45:00,
2013-08-30 05:47:00,69.1,67.6,29.87,SSE,158,0.0,0.0,95,0.00,,,0.00,Wunderground v.1.15,2013-08-30 10:47:00,
2013-08-30 05:49:00,69.1,67.6,29.87,SSE,158,0.0,0.0,95,0.00,,,0.00,Wunderground v.1.15,2013-08-30 10:49:00,
2013-08-30 05:53:00,69.1,67.6,29.87,SSE,158,0.0,0.0,95,0.00,,,0.00,Wunderground v.1.15,2013-08-30 10:53:00,
2013-08-30 05:55:00,69.1,67.6,29.87,SSE,158,0.0,0.0,95,0.00,,,0.00,Wunderground v.1.15,2013-08-30 10:55:00,
2013-08-30 05:56:00,69.1,67.6,29.87,SSE,158,0.0,0.0,95,0.00,,,0.00,Wunderground v.1.15,2013-08-30 10:56:00,
2013-08-30 05:58:00,69.1,67.6,29.87,SSE,158,0.0,0.0,95,0.00,,,0.00,Wunderground v.1.15,2013-08-30 10:58:00,
2013-08-30 05:59:00,69.1,67.6,29.87,SSE,158,0.0,0.0,95,0.00,,,0.00,Wunderground v.1.15,2013-08-30 10:59:00,
2013-08-30 06:02:00,69.1,67.6,29.87,SSE,158,0.0,0.0,95,0.00,,,0.00,Wunderground v.1.15,2013-08-30 11:02:00,
2013-08-30 06:04:00,69.2,67.7,29.87,SSE,158,0.0,1.0,95,0.00,,,0.00,Wunderground v.1.15,2013-08-30 11:04:00,
2013-08-30 06:09:00,69.2,67.7,29.87,SSE,158,1.0,2.0,95,0.00,,,0.00,Wunderground v.1.15,2013-08-30 11:09:00,
2013-08-30 06:10:00,69.2,67.7,29.87,SSE,158,1.0,2.0,95,0.00,,,0.00,Wunderground v.1.15,2013-08-30 11:10:00,
2013-08-30 06:12:00,69.2,67.7,29.87,SSE,158,1.0,2.0,95,0.00,,,0.00,Wunderground v.1.15,2013-08-30 11:12:00,
2013-08-30 06:13:00,69.2,67.7,29.87,SSE,158,1.0,2.0,95,0.00,,,0.00,Wunderground v.1.15,2013-08-30 11:13:00,
2013-08-30 06:16:00,69.3,67.8,29.87,SSE,158,1.0,2.0,95,0.00,,,0.00,Wunderground v.1.15,2013-08-30 11:16:00,
2013-08-30 06:17:00,69.2,67.7,29.87,SSE,158,1.0,2.0,95,0.00,,,0.00,Wunderground v.1.15,2013-08-30 11:17:00,
2013-08-30 06:18:00,69.2,67.7,29.87,SSE,158,1.0,2.0,95,0.00,,,0.00,Wunderground v.1.15,2013-08-30 11:18:00,
2013-08-30 06:19:00,69.2,67.7,29.87,SSE,158,1.0,2.0,95,0.00,,,0.00,Wunderground v.1.15,2013-08-30 11:19:00,
2013-08-30 06:21:00,69.3,67.8,29.87,SSE,158,1.0,2.0,95,0.00,,,0.00,Wunderground v.1.15,2013-08-30 11:21:00,
2013-08-30 06:23:00,69.3,67.8,29.87,SSE,158,1.0,2.0,95,0.00,,,0.00,Wunderground v.1.15,2013-08-30 11:23:00,
2013-08-30 06:25:00,69.3,67.8,29.87,SSE,158,1.0,2.0,95,0.00,,,0.00,Wunderground v.1.15,2013-08-30 11:25:00,
2013-08-30 06:27:00,69.3,67.8,29.87,SSE,159,1.0,2.0,95,0.00,,,0.00,Wunderground v.1.15,2013-08-30 11:27:00,
2013-08-30 06:31:00,69.4,67.9,29.87,SSE,159,1.0,2.0,95,0.00,,,0.00,Wunderground v.1.15,2013-08-30 11:31:00,
2013-08-30 06:34:00,69.4,67.9,29.87,SSE,159,1.0,2.0,95,0.00,,,0.00,Wunderground v.1.15,2013-08-30 11:34:00,
2013-08-30 06:35:00,69.4,67.9,29.87,SSE,159,1.0,3.0,95,0.00,,,0.00,Wunderground v.1.15,2013-08-30 11:35:00,
2013-08-30 06:37:00,69.4,67.9,29.87,SSE,159,1.0,3.0,95,0.00,,,0.00,Wunderground v.1.15,2013-08-30 11:37:00,
2013-08-30 06:38:00,69.4,67.9,29.87,SSE,159,1.0,3.0,95,0.00,,,0.00,Wunderground v.1.15,2013-08-30 11:38:00,
2013-08-30 06:39:00,69.4,67.9,29.87,SSE,159,1.0,3.0,95,0.00,,,0.00,Wunderground v.1.15,2013-08-30 11:39:00,
2013-08-30 06:40:00,69.4,67.9,29.87,SSE,159,1.0,2.0,95,0.00,,,0.00,Wunderground v.1.15,2013-08-30 11:40:00,
2013-08-30 06:44:00,69.5,68.0,29.87,SSE,164,2.0,4.0,95,0.00,,,0.00,Wunderground v.1.15,2013-08-30 11:44:00,
2013-08-30 06:45:00,69.5,68.0,29.87,SSE,164,2.0,5.0,95,0.00,,,0.00,Wunderground v.1.15,2013-08-30 11:45:00,
2013-08-30 06:48:00,69.6,68.1,29.87,South,170,2.0,6.0,95,0.00,,,0.00,Wunderground v.1.15,2013-08-30 11:48:00,
2013-08-30 06:50:00,69.7,68.2,29.87,South,173,3.0,3.0,95,0.00,,,0.00,Wunderground v.1.15,2013-08-30 11:50:00,
2013-08-30 06:51:00,69.7,68.2,29.87,South,175,3.0,4.0,95,0.00,,,0.00,Wunderground v.1.15,2013-08-30 11:51:00,
2013-08-30 06:52:00,69.7,68.2,29.87,South,175,3.0,4.0,95,0.00,,,0.00,Wunderground v.1.15,2013-08-30 11:52:00,
2013-08-30 06:55:00,69.8,68.3,29.87,South,175,3.0,4.0,95,0.00,,,0.00,Wunderground v.1.15,2013-08-30 11:55:00,
2013-08-30 06:59:00,69.9,68.4,29.87,South,180,3.0,4.0,95,0.00,,,0.00,Wunderground v.1.15,2013-08-30 11:59:00,
2013-08-30 07:01:00,70.0,68.5,29.87,South,180,2.0,3.0,95,0.00,,,0.00,Wunderground v.1.15,2013-08-30 12:01:00,
2013-08-30 07:02:00,70.0,68.5,29.87,South,180,2.0,3.0,95,0.00,,,0.00,Wunderground v.1.15,2013-08-30 12:02:00,
2013-08-30 07:07:00,70.1,68.3,29.87,South,180,2.0,3.0,94,0.00,,,0.00,Wunderground v.1.15,2013-08-30 12:07:00,
2013-08-30 07:08:00,70.1,68.6,29.87,South,180,2.0,3.0,95,0.00,,,0.00,Wunderground v.1.15,2013-08-30 12:08:00,
2013-08-30 07:09:00,70.2,68.7,29.86,South,180,2.0,3.0,95,0.00,,,0.00,Wunderground v.1.15,2013-08-30 12:09:00,
2013-08-30 07:10:00,70.1,68.6,29.86,South,180,2.0,2.0,95,0.00,,,0.00,Wunderground v.1.15,2013-08-30 12:10:00,
2013-08-30 07:11:00,70.2,68.7,29.86,South,180,2.0,5.0,95,0.00,,,0.00,Wunderground v.1.15,2013-08-30 12:11:00,
2013-08-30 07:14:00,70.3,68.8,29.86,South,179,2.0,7.0,95,0.00,,,0.00,Wunderground v.1.15,2013-08-30 12:14:00,
2013-08-30 07:16:00,70.3,68.5,29.86,South,180,3.0,7.0,94,0.00,,,0.00,Wunderground v.1.15,2013-08-30 12:16:00,
2013-08-30 07:17:00,70.3,68.5,29.86,South,180,3.0,7.0,94,0.00,,,0.00,Wunderground v.1.15,2013-08-30 12:17:00,
2013-08-30 07:18:00,70.4,68.6,29.86,South,180,3.0,7.0,94,0.00,,,0.00,Wunderground v.1.15,2013-08-30 12:18:00,
2013-08-30 07:23:00,70.5,68.7,29.86,South,180,3.0,4.0,94,0.00,,,0.00,Wunderground v.1.15,2013-08-30 12:23:00,
2013-08-30 07:24:00,70.5,68.7,29.86,South,186,3.0,4.0,94,0.00,,,0.00,Wunderground v.1.15,2013-08-30 12:24:00,
2013-08-30 07:26:00,70.6,68.8,29.86,South,188,3.0,4.0,94,0.00,,,0.00,Wunderground v.1.15,2013-08-30 12:26:00,
2013-08-30 07:27:00,70.7,68.9,29.86,South,188,3.0,4.0,94,0.00,,,0.00,Wunderground v.1.15,2013-08-30 12:27:00,
2013-08-30 07:30:00,70.8,69.0,29.86,SSW,193,3.0,4.0,94,0.00,,,0.00,Wunderground v.1.15,2013-08-30 12:30:00,
2013-08-30 07:34:00,70.9,69.1,29.86,South,180,3.0,5.0,94,0.00,,,0.00,Wunderground v.1.15,2013-08-30 12:34:00,
2013-08-30 07:35:00,71.0,69.2,29.86,South,179,3.0,5.0,94,0.00,,,0.00,Wunderground v.1.15,2013-08-30 12:35:00,
2013-08-30 07:36:00,71.1,69.3,29.86,South,178,3.0,5.0,94,0.00,,,0.00,Wunderground v.1.15,2013-08-30 12:36:00,
2013-08-30 07:38:00,71.2,69.4,29.86,SSW,198,3.0,5.0,94,0.00,,,0.00,Wunderground v.1.15,2013-08-30 12:38:00,
2013-08-30 07:40:00,71.3,69.5,29.86,South,176,3.0,5.0,94,0.00,,,0.00,Wunderground v.1.15,2013-08-30 12:40:00,
2013-08-30 07:41:00,71.4,69.6,29.86,South,177,4.0,5.0,94,0.00,,,0.00,Wunderground v.1.15,2013-08-30 12:41:00,
2013-08-30 07:44:00,71.5,69.7,29.86,South,184,4.0,6.0,94,0.00,,,0.00,Wunderground v.1.15,2013-08-30 12:44:00,
2013-08-30 07:46:00,71.7,69.9,29.86,South,190,4.0,6.0,94,0.00,,,0.00,Wunderground v.1.15,2013-08-30 12:46:00,
2013-08-30 07:47:00,71.7,69.9,29.86,South,190,4.0,6.0,94,0.00,,,0.00,Wunderground v.1.15,2013-08-30 12:47:00,
2013-08-30 07:48:00,71.8,69.7,29.86,South,188,4.0,6.0,93,0.00,,,0.00,Wunderground v.1.15,2013-08-30 12:48:00,
2013-08-30 07:51:00,72.1,70.0,29.86,South,178,4.0,5.0,93,0.00,,,0.00,Wunderground v.1.15,2013-08-30 12:51:00,
2013-08-30 07:52:00,72.1,70.0,29.86,South,180,4.0,5.0,93,0.00,,,0.00,Wunderground v.1.15,2013-08-30 12:52:00,
2013-08-30 07:56:00,72.4,70.3,29.86,South,171,4.0,8.0,93,0.00,,,0.00,Wunderground v.1.15,2013-08-30 12:56:00,
2013-08-30 07:57:00,72.5,70.4,29.86,South,171,4.0,8.0,93,0.00,,,0.00,Wunderground v.1.15,2013-08-30 12:57:00,
2013-08-30 07:58:00,72.6,70.1,29.86,South,184,4.0,8.0,92,0.00,,,0.00,Wunderground v.1.15,2013-08-30 12:58:00,
2013-08-30 07:59:00,72.6,70.1,29.86,South,186,3.0,8.0,92,0.00,,,0.00,Wunderground v.1.15,2013-08-30 12:59:00,
2013-08-30 08:02:00,72.9,70.4,29.86,South,186,4.0,6.0,92,0.00,,,0.00,Wunderground v.1.15,2013-08-30 13:02:00,
2013-08-30 08:03:00,72.9,70.4,29.86,South,186,4.0,6.0,92,0.00,,,0.00,Wunderground v.1.15,2013-08-30 13:03:00,
2013-08-30 08:04:00,73.0,70.5,29.86,South,188,4.0,6.0,92,0.00,,,0.00,Wunderground v.1.15,2013-08-30 13:04:00,
2013-08-30 08:09:00,73.4,70.9,29.86,South,188,4.0,6.0,92,0.00,,,0.00,Wunderground v.1.15,2013-08-30 13:09:00,
2013-08-30 08:10:00,73.5,71.0,29.86,South,189,4.0,4.0,92,0.00,,,0.00,Wunderground v.1.15,2013-08-30 13:10:00,
2013-08-30 08:14:00,73.9,71.1,29.86,SW,219,4.0,6.0,91,0.00,,,0.00,Wunderground v.1.15,2013-08-30 13:14:00,
2013-08-30 08:15:00,73.9,71.1,29.86,South,176,5.0,6.0,91,0.00,,,0.00,Wunderground v.1.15,2013-08-30 13:15:00,
2013-08-30 08:16:00,74.0,71.2,29.86,South,176,4.0,6.0,91,0.00,,,0.00,Wunderground v.1.15,2013-08-30 13:16:00,
2013-08-30 08:18:00,74.2,71.4,29.86,South,176,4.0,6.0,91,0.00,,,0.00,Wunderground v.1.15,2013-08-30 13:18:00,
2013-08-30 08:19:00,74.3,71.5,29.86,South,171,4.0,6.0,91,0.00,,,0.00,Wunderground v.1.15,2013-08-30 13:19:00,
2013-08-30 08:21:00,74.5,71.7,29.86,SSW,192,4.0,6.0,91,0.00,,,0.00,Wunderground v.1.15,2013-08-30 13:21:00,
2013-08-30 08:23:00,74.7,71.9,29.86,SSW,198,3.0,6.0,91,0.00,,,0.00,Wunderground v.1.15,2013-08-30 13:23:00,
2013-08-30 08:25:00,74.9,71.8,29.86,SSW,197,3.0,6.0,90,0.00,,,0.00,Wunderground v.1.15,2013-08-30 13:25:00,
2013-08-30 08:28:00,75.1,72.0,29.86,SW,215,4.0,6.0,90,0.00,,,0.00,Wunderground v.1.15,2013-08-30 13:28:00,
2013-08-30 08:30:00,75.2,72.1,29.86,South,176,4.0,4.0,90,0.00,,,0.00,Wunderground v.1.15,2013-08-30 13:30:00,
2013-08-30 08:31:00,75.3,72.2,29.86,South,178,4.0,5.0,90,0.00,,,0.00,Wunderground v.1.15,2013-08-30 13:31:00,
2013-08-30 08:32:00,75.4,72.3,29.86,South,178,4.0,5.0,90,0.00,,,0.00,Wunderground v.1.15,2013-08-30 13:32:00,
2013-08-30 08:36:00,75.7,72.2,29.86,South,187,5.0,7.0,89,0.00,,,0.00,Wunderground v.1.15,2013-08-30 13:36:00,
2013-08-30 08:37:00,75.8,72.7,29.86,South,182,5.0,7.0,90,0.00,,,0.00,Wunderground v.1.15,2013-08-30 13:37:00,
2013-08-30 08:39:00,75.9,72.4,29.86,SSW,202,5.0,7.0,89,0.00,,,0.00,Wunderground v.1.15,2013-08-30 13:39:00,
2013-08-30 08:41:00,76.1,72.6,29.86,SSW,200,5.0,9.0,89,0.00,,,0.00,Wunderground v.1.15,2013-08-30 13:41:00,
2013-08-30 08:42:00,76.1,72.6,29.86,South,180,5.0,12.0,89,0.00,,,0.00,Wunderground v.1.15,2013-08-30 13:42:00,
2013-08-30 08:43:00,76.2,72.7,29.86,SSW,200,6.0,12.0,89,0.00,,,0.00,Wunderground v.1.15,2013-08-30 13:43:00,
2013-08-30 08:44:00,76.3,72.8,29.86,SSW,197,6.0,12.0,89,0.00,,,0.00,Wunderground v.1.15,2013-08-30 13:44:00,
2013-08-30 08:45:00,76.4,72.9,29.86,South,191,5.0,12.0,89,0.00,,,0.00,Wunderground v.1.15,2013-08-30 13:45:00,
2013-08-30 08:46:00,76.5,73.0,29.86,SSW,192,6.0,12.0,89,0.00,,,0.00,Wunderground v.1.15,2013-08-30 13:46:00,
2013-08-30 08:47:00,76.6,73.1,29.85,SSW,192,5.0,12.0,89,0.00,,,0.00,Wunderground v.1.15,2013-08-30 13:47:00,
2013-08-30 08:51:00,77.0,73.2,29.85,South,182,5.0,7.0,88,0.00,,,0.00,Wunderground v.1.15,2013-08-30 13:51:00,
2013-08-30 08:53:00,77.1,73.3,29.85,SSW,196,5.0,9.0,88,0.00,,,0.00,Wunderground v.1.15,2013-08-30 13:53:00,
2013-08-30 08:55:00,77.3,73.5,29.85,South,179,5.0,9.0,88,0.00,,,0.00,Wunderground v.1.15,2013-08-30 13:55:00,
2013-08-30 08:57:00,77.4,73.2,29.86,South,185,4.0,9.0,87,0.00,,,0.00,Wunderground v.1.15,2013-08-30 13:57:00,
2013-08-30 09:00:00,77.7,73.5,29.85,SSW,193,5.0,5.0,87,0.00,,,0.00,Wunderground v.1.15,2013-08-30 14:00:00,
2013-08-30 09:01:00,77.8,73.6,29.86,SSW,197,5.0,6.0,87,0.00,,,0.00,Wunderground v.1.15,2013-08-30 14:01:00,
2013-08-30 09:02:00,77.9,73.7,29.85,SSW,194,5.0,6.0,87,0.00,,,0.00,Wunderground v.1.15,2013-08-30 14:02:00,
2013-08-30 09:03:00,78.0,73.8,29.86,SSW,194,5.0,6.0,87,0.00,,,0.00,Wunderground v.1.15,2013-08-30 14:03:00,
2013-08-30 09:05:00,78.3,74.1,29.86,South,181,4.0,6.0,87,0.00,,,0.00,Wunderground v.1.15,2013-08-30 14:05:00,
2013-08-30 09:06:00,78.4,74.2,29.85,South,172,4.0,6.0,87,0.00,,,0.00,Wunderground v.1.15,2013-08-30 14:06:00,
2013-08-30 09:09:00,78.6,74.1,29.85,South,171,4.0,6.0,86,0.00,,,0.00,Wunderground v.1.15,2013-08-30 14:09:00,
2013-08-30 09:10:00,78.6,74.1,29.86,South,171,4.0,4.0,86,0.00,,,0.00,Wunderground v.1.15,2013-08-30 14:10:00,
2013-08-30 09:11:00,78.9,74.4,29.85,South,187,4.0,4.0,86,0.00,,,0.00,Wunderground v.1.15,2013-08-30 14:11:00,
2013-08-30 09:13:00,79.0,74.5,29.85,South,187,4.0,4.0,86,0.00,,,0.00,Wunderground v.1.15,2013-08-30 14:13:00,
2013-08-30 09:14:00,79.1,74.5,29.85,South,180,4.0,4.0,86,0.00,,,0.00,Wunderground v.1.15,2013-08-30 14:14:00,
2013-08-30 09:15:00,79.2,74.3,29.85,SSW,194,4.0,4.0,85,0.00,,,0.00,Wunderground v.1.15,2013-08-30 14:15:00,
2013-08-30 09:16:00,79.4,74.5,29.85,South,190,4.0,4.0,85,0.00,,,0.00,Wunderground v.1.15,2013-08-30 14:16:00,
2013-08-30 09:18:00,79.5,74.6,29.85,South,191,3.0,5.0,85,0.00,,,0.00,Wunderground v.1.15,2013-08-30 14:18:00,
2013-08-30 09:19:00,79.6,74.7,29.85,South,188,3.0,5.0,85,0.00,,,0.00,Wunderground v.1.15,2013-08-30 14:19:00,
2013-08-30 09:20:00,79.7,74.8,29.85,South,182,3.0,6.0,85,0.00,,,0.00,Wunderground v.1.15,2013-08-30 14:20:00,
2013-08-30 09:21:00,79.8,74.9,29.85,South,181,4.0,6.0,85,0.00,,,0.00,Wunderground v.1.15,2013-08-30 14:21:00,
2013-08-30 09:23:00,80.0,74.7,29.85,South,179,4.0,6.0,84,0.00,,,0.00,Wunderground v.1.15,2013-08-30 14:23:00,
2013-08-30 09:27:00,80.2,74.6,29.85,South,180,4.0,6.0,83,0.00,,,0.00,Wunderground v.1.15,2013-08-30 14:27:00,
2013-08-30 09:30:00,80.4,74.8,29.85,SSW,198,5.0,5.0,83,0.00,,,0.00,Wunderground v.1.15,2013-08-30 14:30:00,
2013-08-30 09:31:00,80.5,74.9,29.85,SW,226,5.0,7.0,83,0.00,,,0.00,Wunderground v.1.15,2013-08-30 14:31:00,
2013-08-30 09:32:00,80.6,75.0,29.85,WSW,249,5.0,7.0,83,0.00,,,0.00,Wunderground v.1.15,2013-08-30 14:32:00,
2013-08-30 09:34:00,80.7,75.1,29.85,South,180,5.0,7.0,83,0.00,,,0.00,Wunderground v.1.15,2013-08-30 14:34:00,
2013-08-30 09:35:00,80.7,75.1,29.85,South,169,5.0,7.0,83,0.00,,,0.00,Wunderground v.1.15,2013-08-30 14:35:00,
2013-08-30 09:38:00,80.9,74.9,29.85,SSW,200,5.0,7.0,82,0.00,,,0.00,Wunderground v.1.15,2013-08-30 14:38:00,
2013-08-30 09:40:00,80.9,74.9,29.85,SW,227,5.0,5.0,82,0.00,,,0.00,Wunderground v.1.15,2013-08-30 14:40:00,
2013-08-30 09:41:00,81.0,75.0,29.85,South,186,5.0,5.0,82,0.00,,,0.00,Wunderground v.1.15,2013-08-30 14:41:00,
2013-08-30 09:42:00,81.0,75.0,29.85,SSE,168,5.0,5.0,82,0.00,,,0.00,Wunderground v.1.15,2013-08-30 14:42:00,
2013-08-30 09:43:00,81.1,75.1,29.85,South,186,5.0,5.0,82,0.00,,,0.00,Wunderground v.1.15,2013-08-30 14:43:00,
2013-08-30 09:45:00,81.1,75.1,29.85,South,171,5.0,6.0,82,0.00,,,0.00,Wunderground v.1.15,2013-08-30 14:45:00,
2013-08-30 09:47:00,81.3,75.3,29.85,SSW,202,5.0,6.0,82,0.00,,,0.00,Wunderground v.1.15,2013-08-30 14:47:00,
2013-08-30 09:50:00,81.6,75.6,29.85,SW,222,4.0,5.0,82,0.00,,,0.00,Wunderground v.1.15,2013-08-30 14:50:00,
2013-08-30 09:53:00,81.9,75.9,29.85,SSW,197,3.0,5.0,82,0.00,,,0.00,Wunderground v.1.15,2013-08-30 14:53:00,
2013-08-30 09:55:00,82.2,75.4,29.85,South,188,3.0,5.0,80,0.00,,,0.00,Wunderground v.1.15,2013-08-30 14:55:00,
2013-08-30 09:56:00,82.3,75.5,29.85,SSW,199,3.0,5.0,80,0.00,,,0.00,Wunderground v.1.15,2013-08-30 14:56:00,
2013-08-30 10:00:00,82.6,75.8,29.85,SSW,198,3.0,3.0,80,0.00,,,0.00,Wunderground v.1.15,2013-08-30 15:00:00,
2013-08-30 10:02:00,82.7,75.9,29.85,SSW,198,4.0,4.0,80,0.00,,,0.00,Wunderground v.1.15,2013-08-30 15:02:00,
2013-08-30 10:05:00,83.0,75.8,29.85,South,175,3.0,7.0,79,0.00,,,0.00,Wunderground v.1.15,2013-08-30 15:05:00,
2013-08-30 10:06:00,83.1,75.9,29.85,South,175,4.0,7.0,79,0.00,,,0.00,Wunderground v.1.15,2013-08-30 15:06:00,
2013-08-30 10:11:00,83.5,75.9,29.85,SW,229,4.0,5.0,78,0.00,,,0.00,Wunderground v.1.15,2013-08-30 15:11:00,
2013-08-30 10:12:00,83.6,76.0,29.84,SSW,200,4.0,5.0,78,0.00,,,0.00,Wunderground v.1.15,2013-08-30 15:12:00,
2013-08-30 10:16:00,83.8,75.8,29.85,South,170,4.0,5.0,77,0.00,,,0.00,Wunderground v.1.15,2013-08-30 15:16:00,
2013-08-30 10:17:00,83.9,75.9,29.84,South,171,4.0,5.0,77,0.00,,,0.00,Wunderground v.1.15,2013-08-30 15:17:00,
2013-08-30 10:18:00,83.9,75.9,29.84,South,188,4.0,7.0,77,0.00,,,0.00,Wunderground v.1.15,2013-08-30 15:18:00,
2013-08-30 10:20:00,83.9,75.9,29.84,South,184,5.0,5.0,77,0.00,,,0.00,Wunderground v.1.15,2013-08-30 15:20:00,
2013-08-30 10:22:00,84.0,76.0,29.84,South,178,4.0,7.0,77,0.00,,,0.00,Wunderground v.1.15,2013-08-30 15:22:00,
2013-08-30 10:23:00,84.0,76.0,29.84,South,181,4.0,7.0,77,0.00,,,0.00,Wunderground v.1.15,2013-08-30 15:23:00,
2013-08-30 10:25:00,84.1,76.1,29.84,South,186,5.0,10.0,77,0.00,,,0.00,Wunderground v.1.15,2013-08-30 15:25:00,
2013-08-30 10:26:00,84.3,76.3,29.84,South,188,5.0,10.0,77,0.00,,,0.00,Wunderground v.1.15,2013-08-30 15:26:00,
2013-08-30 10:27:00,84.3,76.3,29.84,SSW,194,5.0,10.0,77,0.00,,,0.00,Wunderground v.1.15,2013-08-30 15:27:00,
2013-08-30 10:32:00,84.8,76.4,29.84,SW,234,5.0,10.0,76,0.00,,,0.00,Wunderground v.1.15,2013-08-30 15:32:00,
2013-08-30 10:34:00,84.9,76.5,29.84,WSW,244,4.0,10.0,76,0.00,,,0.00,Wunderground v.1.15,2013-08-30 15:34:00,
2013-08-30 10:37:00,85.0,76.6,29.84,SSW,195,4.0,10.0,76,0.00,,,0.00,Wunderground v.1.15,2013-08-30 15:37:00,
2013-08-30 10:39:00,85.1,76.7,29.84,South,186,4.0,10.0,76,0.00,,,0.00,Wunderground v.1.15,2013-08-30 15:39:00,
2013-08-30 10:41:00,85.3,76.5,29.84,South,176,4.0,4.0,75,0.00,,,0.00,Wunderground v.1.15,2013-08-30 15:41:00,
2013-08-30 10:43:00,85.4,76.6,29.84,SSE,157,4.0,4.0,75,0.00,,,0.00,Wunderground v.1.15,2013-08-30 15:43:00,
2013-08-30 10:44:00,85.4,76.2,29.84,SSE,158,4.0,4.0,74,0.00,,,0.00,Wunderground v.1.15,2013-08-30 15:44:00,
2013-08-30 10:45:00,85.4,76.6,29.84,SSE,158,4.0,4.0,75,0.00,,,0.00,Wunderground v.1.15,2013-08-30 15:45:00,
2013-08-30 10:47:00,85.6,76.8,29.84,SSE,163,4.0,4.0,75,0.00,,,0.00,Wunderground v.1.15,2013-08-30 15:47:00,
2013-08-30 10:48:00,85.7,77.3,29.84,SSE,163,3.0,4.0,76,0.00,,,0.00,Wunderground v.1.15,2013-08-30 15:48:00,
2013-08-30 10:52:00,86.1,76.8,29.84,South,186,3.0,4.0,74,0.00,,,0.00,Wunderground v.1.15,2013-08-30 15:52:00,
2013-08-30 10:53:00,86.1,76.4,29.83,South,190,3.0,4.0,73,0.00,,,0.00,Wunderground v.1.15,2013-08-30 15:53:00,
2013-08-30 10:54:00,86.2,76.5,29.83,South,179,3.0,4.0,73,0.00,,,0.00,Wunderground v.1.15,2013-08-30 15:54:00,
2013-08-30 10:57:00,86.3,76.6,29.84,WSW,241,3.0,7.0,73,0.00,,,0.00,Wunderground v.1.15,2013-08-30 15:57:00,
2013-08-30 10:58:00,86.3,77.0,29.83,WSW,242,3.0,7.0,74,0.00,,,0.00,Wunderground v.1.15,2013-08-30 15:58:00,
2013-08-30 10:59:00,86.3,76.2,29.83,SW,230,3.0,7.0,72,0.00,,,0.00,Wunderground v.1.15,2013-08-30 15:59:00,
2013-08-30 11:01:00,86.4,76.3,29.83,WSW,255,3.0,6.0,72,0.00,,,0.00,Wunderground v.1.15,2013-08-30 16:01:00,
2013-08-30 11:03:00,86.4,76.7,29.83,SSW,213,3.0,6.0,73,0.00,,,0.00,Wunderground v.1.15,2013-08-30 16:03:00,
2013-08-30 11:06:00,86.7,77.4,29.83,South,188,3.0,6.0,74,0.00,,,0.00,Wunderground v.1.15,2013-08-30 16:06:00,
2013-08-30 11:08:00,86.8,77.1,29.83,South,187,3.0,6.0,73,0.00,,,0.00,Wunderground v.1.15,2013-08-30 16:08:00,
2013-08-30 11:11:00,87.3,77.6,29.83,South,176,3.0,6.0,73,0.00,,,0.00,Wunderground v.1.15,2013-08-30 16:11:00,
2013-08-30 11:12:00,87.4,76.8,29.83,South,170,3.0,7.0,71,0.00,,,0.00,Wunderground v.1.15,2013-08-30 16:12:00,
2013-08-30 11:14:00,87.5,76.9,29.83,South,174,3.0,7.0,71,0.00,,,0.00,Wunderground v.1.15,2013-08-30 16:14:00,
2013-08-30 11:15:00,87.6,77.0,29.83,South,174,3.0,7.0,71,0.00,,,0.00,Wunderground v.1.15,2013-08-30 16:15:00,
2013-08-30 11:16:00,87.7,77.1,29.83,South,178,3.0,7.0,71,0.00,,,0.00,Wunderground v.1.15,2013-08-30 16:16:00,
2013-08-30 11:19:00,87.8,77.2,29.83,SSE,166,4.0,9.0,71,0.00,,,0.00,Wunderground v.1.15,2013-08-30 16:19:00,
2013-08-30 11:21:00,87.9,77.7,29.83,WSW,239,4.0,5.0,72,0.00,,,0.00,Wunderground v.1.15,2013-08-30 16:21:00,
2013-08-30 11:23:00,88.0,77.8,29.83,South,184,4.0,6.0,72,0.00,,,0.00,Wunderground v.1.15,2013-08-30 16:23:00,
2013-08-30 11:25:00,88.1,77.1,29.83,South,182,4.0,6.0,70,0.00,,,0.00,Wunderground v.1.15,2013-08-30 16:25:00,
2013-08-30 11:27:00,88.2,77.6,29.83,SSW,192,4.0,6.0,71,0.00,,,0.00,Wunderground v.1.15,2013-08-30 16:27:00,
2013-08-30 11:30:00,88.4,77.4,29.82,SSW,192,4.0,5.0,70,0.00,,,0.00,Wunderground v.1.15,2013-08-30 16:30:00,
2013-08-30 11:31:00,88.6,77.6,29.82,South,191,4.0,5.0,70,0.00,,,0.00,Wunderground v.1.15,2013-08-30 16:31:00,
2013-08-30 11:33:00,88.7,77.7,29.82,South,182,3.0,5.0,70,0.00,,,0.00,Wunderground v.1.15,2013-08-30 16:33:00,
2013-08-30 11:34:00,88.8,77.7,29.82,South,182,3.0,5.0,70,0.00,,,0.00,Wunderground v.1.15,2013-08-30 16:34:00,
2013-08-30 11:36:00,89.0,77.5,29.82,WSW,251,3.0,6.0,69,0.00,,,0.00,Wunderground v.1.15,2013-08-30 16:36:00,
2013-08-30 11:38:00,89.0,77.5,29.82,South,182,3.0,7.0,69,0.00,,,0.00,Wunderground v.1.15,2013-08-30 16:38:00,
2013-08-30 11:40:00,89.2,76.8,29.82,SW,224,3.0,3.0,67,0.00,,,0.00,Wunderground v.1.15,2013-08-30 16:40:00,
2013-08-30 11:41:00,89.3,77.8,29.82,SSW,204,3.0,3.0,69,0.00,,,0.00,Wunderground v.1.15,2013-08-30 16:41:00,
2013-08-30 11:43:00,89.4,77.4,29.82,SSW,207,4.0,5.0,68,0.00,,,0.00,Wunderground v.1.15,2013-08-30 16:43:00,
2013-08-30 11:46:00,89.6,76.7,29.81,SW,217,4.0,6.0,66,0.00,,,0.00,Wunderground v.1.15,2013-08-30 16:46:00,
2013-08-30 11:49:00,89.6,76.7,29.81,South,190,3.0,6.0,66,0.00,,,0.00,Wunderground v.1.15,2013-08-30 16:49:00,
2013-08-30 11:52:00,89.8,76.5,29.81,South,189,4.0,4.0,65,0.00,,,0.00,Wunderground v.1.15,2013-08-30 16:52:00,
2013-08-30 11:55:00,90.1,77.7,29.81,South,190,3.0,4.0,67,0.00,,,0.00,Wunderground v.1.15,2013-08-30 16:55:00,
2013-08-30 11:56:00,90.2,76.8,29.81,SSW,211,3.0,5.0,65,0.00,,,0.00,Wunderground v.1.15,2013-08-30 16:56:00,
2013-08-30 11:57:00,90.3,76.9,29.81,SSW,193,3.0,6.0,65,0.00,,,0.00,Wunderground v.1.15,2013-08-30 16:57:00,
2013-08-30 12:01:00,90.6,77.7,29.81,SW,221,3.0,3.0,66,0.00,,,0.00,Wunderground v.1.15,2013-08-30 17:01:00,
2013-08-30 12:03:00,90.7,77.3,29.81,SW,223,3.0,3.0,65,0.00,,,0.00,Wunderground v.1.15,2013-08-30 17:03:00,
2013-08-30 12:05:00,90.8,77.4,29.81,SW,220,3.0,3.0,65,0.00,,,0.00,Wunderground v.1.15,2013-08-30 17:05:00,
2013-08-30 12:08:00,91.1,77.2,29.81,SSW,205,3.0,9.0,64,0.00,,,0.00,Wunderground v.1.15,2013-08-30 17:08:00,
2013-08-30 12:11:00,91.3,76.9,29.81,SSW,202,4.0,4.0,63,0.00,,,0.00,Wunderground v.1.15,2013-08-30 17:11:00,
2013-08-30 12:14:00,91.4,77.0,29.81,SSW,192,4.0,4.0,63,0.00,,,0.00,Wunderground v.1.15,2013-08-30 17:14:00,
2013-08-30 12:16:00,91.5,77.1,29.81,South,182,4.0,10.0,63,0.00,,,0.00,Wunderground v.1.15,2013-08-30 17:16:00,
2013-08-30 12:17:00,91.6,77.2,29.81,SSW,208,4.0,10.0,63,0.00,,,0.00,Wunderground v.1.15,2013-08-30 17:17:00,
2013-08-30 12:19:00,91.7,76.3,29.81,South,178,4.0,10.0,61,0.00,,,0.00,Wunderground v.1.15,2013-08-30 17:19:00,
2013-08-30 12:22:00,91.9,77.0,29.81,WSW,239,4.0,4.0,62,0.00,,,0.00,Wunderground v.1.15,2013-08-30 17:22:00,
2013-08-30 12:23:00,91.9,77.5,29.81,SSW,192,4.0,5.0,63,0.00,,,0.00,Wunderground v.1.15,2013-08-30 17:23:00,
2013-08-30 12:24:00,91.9,76.5,29.81,South,172,4.0,5.0,61,0.00,,,0.00,Wunderground v.1.15,2013-08-30 17:24:00,
2013-08-30 12:25:00,92.0,76.6,29.81,WSW,245,4.0,10.0,61,0.00,,,0.00,Wunderground v.1.15,2013-08-30 17:25:00,
2013-08-30 12:30:00,92.0,77.1,29.80,SW,234,5.0,5.0,62,0.00,,,0.00,Wunderground v.1.15,2013-08-30 17:30:00,
2013-08-30 12:31:00,92.0,77.1,29.80,South,189,5.0,5.0,62,0.00,,,0.00,Wunderground v.1.15,2013-08-30 17:31:00,
2013-08-30 12:35:00,92.1,77.2,29.80,SSW,194,5.0,10.0,62,0.00,,,0.00,Wunderground v.1.15,2013-08-30 17:35:00,
2013-08-30 12:37:00,92.2,76.8,29.80,West,271,5.0,10.0,61,0.00,,,0.00,Wunderground v.1.15,2013-08-30 17:37:00,
2013-08-30 12:38:00,92.2,76.8,29.80,West,271,4.0,10.0,61,0.00,,,0.00,Wunderground v.1.15,2013-08-30 17:38:00,
2013-08-30 12:39:00,92.3,77.4,29.80,SW,220,4.0,10.0,62,0.00,,,0.00,Wunderground v.1.15,2013-08-30 17:39:00,
2013-08-30 12:40:00,92.4,77.5,29.80,South,183,4.0,7.0,62,0.00,,,0.00,Wunderground v.1.15,2013-08-30 17:40:00,
2013-08-30 12:43:00,92.6,77.2,29.80,South,175,4.0,7.0,61,0.00,,,0.00,Wunderground v.1.15,2013-08-30 17:43:00,
2013-08-30 12:44:00,92.6,76.7,29.80,SSW,198,4.0,7.0,60,0.00,,,0.00,Wunderground v.1.15,2013-08-30 17:44:00,
2013-08-30 12:49:00,92.9,74.9,29.79,West,259,5.0,7.0,56,0.00,,,0.00,Wunderground v.1.15,2013-08-30 17:49:00,
2013-08-30 12:50:00,92.9,74.9,29.79,West,261,4.0,4.0,56,0.00,,,0.00,Wunderground v.1.15,2013-08-30 17:50:00,
2013-08-30 12:55:00,93.2,75.2,29.79,SSW,211,4.0,10.0,56,0.00,,,0.00,Wunderground v.1.15,2013-08-30 17:55:00,
2013-08-30 12:56:00,93.2,75.7,29.80,SSW,205,4.0,10.0,57,0.00,,,0.00,Wunderground v.1.15,2013-08-30 17:56:00,
2013-08-30 12:58:00,93.3,76.3,29.80,South,184,4.0,10.0,58,0.00,,,0.00,Wunderground v.1.15,2013-08-30 17:58:00,
2013-08-30 13:00:00,93.4,75.4,29.80,SSW,213,4.0,4.0,56,0.00,,,0.00,Wunderground v.1.15,2013-08-30 18:00:00,
2013-08-30 13:01:00,93.4,75.4,29.80,West,260,4.0,4.0,56,0.00,,,0.00,Wunderground v.1.15,2013-08-30 18:01:00,
2013-08-30 13:02:00,93.5,75.4,29.80,SW,232,4.0,4.0,56,0.00,,,0.00,Wunderground v.1.15,2013-08-30 18:02:00,
2013-08-30 13:04:00,93.5,76.0,29.79,SSW,194,4.0,4.0,57,0.00,,,0.00,Wunderground v.1.15,2013-08-30 18:04:00,
2013-08-30 13:07:00,93.6,75.0,29.79,ESE,120,4.0,6.0,55,0.00,,,0.00,Wunderground v.1.15,2013-08-30 18:07:00,
2013-08-30 13:08:00,93.6,75.5,29.79,ESE,122,4.0,6.0,56,0.00,,,0.00,Wunderground v.1.15,2013-08-30 18:08:00,
2013-08-30 13:09:00,93.6,75.0,29.79,ESE,123,3.0,6.0,55,0.00,,,0.00,Wunderground v.1.15,2013-08-30 18:09:00,
2013-08-30 13:11:00,93.7,75.6,29.79,North,349,2.0,4.0,56,0.00,,,0.00,Wunderground v.1.15,2013-08-30 18:11:00,
2013-08-30 13:15:00,94.0,77.5,29.79,SW,232,2.0,5.0,59,0.00,,,0.00,Wunderground v.1.15,2013-08-30 18:15:00,
2013-08-30 13:16:00,94.1,76.0,29.79,SW,215,2.0,6.0,56,0.00,,,0.00,Wunderground v.1.15,2013-08-30 18:16:00,
2013-08-30 13:17:00,94.1,75.5,29.79,SSW,195,2.0,6.0,55,0.00,,,0.00,Wunderground v.1.15,2013-08-30 18:17:00,
2013-08-30 13:18:00,94.2,73.3,29.79,South,178,2.0,6.0,51,0.00,,,0.00,Wunderground v.1.15,2013-08-30 18:18:00,
2013-08-30 13:21:00,94.2,73.3,29.79,SSW,194,4.0,7.0,51,0.00,,,0.00,Wunderground v.1.15,2013-08-30 18:21:00,
2013-08-30 13:22:00,94.2,73.3,29.79,SSW,192,4.0,7.0,51,0.00,,,0.00,Wunderground v.1.15,2013-08-30 18:22:00,
2013-08-30 13:23:00,94.2,73.3,29.79,South,182,4.0,7.0,51,0.00,,,0.00,Wunderground v.1.15,2013-08-30 18:23:00,
2013-08-30 13:24:00,94.2,73.3,29.79,South,178,4.0,7.0,51,0.00,,,0.00,Wunderground v.1.15,2013-08-30 18:24:00,
2013-08-30 13:25:00,94.2,73.3,29.79,WSW,240,4.0,7.0,51,0.00,,,0.00,Wunderground v.1.15,2013-08-30 18:25:00,
2013-08-30 13:28:00,94.3,72.8,29.79,SSW,202,5.0,10.0,50,0.00,,,0.00,Wunderground v.1.15,2013-08-30 18:28:00,
2013-08-30 13:31:00,94.4,73.5,29.79,South,169,5.0,9.0,51,0.00,,,0.00,Wunderground v.1.15,2013-08-30 18:31:00,
2013-08-30 13:33:00,94.5,72.4,29.78,South,173,5.0,10.0,49,0.00,,,0.00,Wunderground v.1.15,2013-08-30 18:33:00,
2013-08-30 13:34:00,94.5,73.0,29.79,South,175,5.0,10.0,50,0.00,,,0.00,Wunderground v.1.15,2013-08-30 18:34:00,
2013-08-30 13:35:00,94.4,73.5,29.78,South,175,5.0,10.0,51,0.00,,,0.00,Wunderground v.1.15,2013-08-30 18:35:00,
2013-08-30 13:37:00,94.5,74.2,29.78,South,175,4.0,10.0,52,0.00,,,0.00,Wunderground v.1.15,2013-08-30 18:37:00,
2013-08-30 13:38:00,94.6,73.7,29.79,South,186,3.0,10.0,51,0.00,,,0.00,Wunderground v.1.15,2013-08-30 18:38:00,
2013-08-30 13:40:00,94.7,72.6,29.78,South,190,3.0,6.0,49,0.00,,,0.00,Wunderground v.1.15,2013-08-30 18:40:00,
2013-08-30 13:43:00,94.9,73.4,29.79,South,188,3.0,7.0,50,0.00,,,0.00,Wunderground v.1.15,2013-08-30 18:43:00,
2013-08-30 13:44:00,94.9,72.1,29.79,South,174,3.0,7.0,48,0.00,,,0.00,Wunderground v.1.15,2013-08-30 18:44:00,
2013-08-30 13:45:00,95.0,72.2,29.78,South,182,3.0,7.0,48,0.00,,,0.00,Wunderground v.1.15,2013-08-30 18:45:00,
2013-08-30 13:49:00,95.2,72.4,29.79,SW,217,4.0,7.0,48,0.00,,,0.00,Wunderground v.1.15,2013-08-30 18:49:00,
2013-08-30 13:50:00,95.2,72.4,29.78,WSW,258,4.0,6.0,48,0.00,,,0.00,Wunderground v.1.15,2013-08-30 18:50:00,
2013-08-30 13:51:00,95.3,71.9,29.78,WSW,247,4.0,10.0,47,0.00,,,0.00,Wunderground v.1.15,2013-08-30 18:51:00,
2013-08-30 13:55:00,95.5,72.7,29.78,SSE,165,4.0,10.0,48,0.00,,,0.00,Wunderground v.1.15,2013-08-30 18:55:00,
2013-08-30 13:56:00,95.5,72.1,29.78,WSW,257,4.0,10.0,47,0.00,,,0.00,Wunderground v.1.15,2013-08-30 18:56:00,
2013-08-30 13:57:00,95.5,72.1,29.78,WSW,252,4.0,10.0,47,0.00,,,0.00,Wunderground v.1.15,2013-08-30 18:57:00,
2013-08-30 13:59:00,95.6,72.8,29.78,South,188,5.0,10.0,48,0.00,,,0.00,Wunderground v.1.15,2013-08-30 18:59:00,
2013-08-30 14:00:00,95.6,72.2,29.78,SW,228,5.0,8.0,47,0.00,,,0.00,Wunderground v.1.15,2013-08-30 19:00:00,
2013-08-30 14:02:00,95.8,73.0,29.78,SSW,211,4.0,8.0,48,0.00,,,0.00,Wunderground v.1.15,2013-08-30 19:02:00,
2013-08-30 14:04:00,95.9,72.4,29.78,South,171,3.0,8.0,47,0.00,,,0.00,Wunderground v.1.15,2013-08-30 19:04:00,
2013-08-30 14:07:00,96.1,72.6,29.78,SW,228,3.0,8.0,47,0.00,,,0.00,Wunderground v.1.15,2013-08-30 19:07:00,
2013-08-30 14:09:00,96.3,72.8,29.78,SE,140,3.0,8.0,47,0.00,,,0.00,Wunderground v.1.15,2013-08-30 19:09:00,
2013-08-30 14:10:00,96.4,72.2,29.78,SSE,155,3.0,3.0,46,0.00,,,0.00,Wunderground v.1.15,2013-08-30 19:10:00,
2013-08-30 14:11:00,96.4,72.9,29.78,SSW,203,2.0,3.0,47,0.00,,,0.00,Wunderground v.1.15,2013-08-30 19:11:00,
2013-08-30 14:14:00,96.5,73.0,29.77,WNW,302,3.0,6.0,47,0.00,,,0.00,Wunderground v.1.15,2013-08-30 19:14:00,
2013-08-30 14:15:00,96.5,73.0,29.77,West,263,3.0,6.0,47,0.00,,,0.00,Wunderground v.1.15,2013-08-30 19:15:00,
2013-08-30 14:16:00,96.5,73.0,29.77,SSW,211,2.0,6.0,47,0.00,,,0.00,Wunderground v.1.15,2013-08-30 19:16:00,
2013-08-30 14:17:00,96.5,73.0,29.77,South,178,2.0,6.0,47,0.00,,,0.00,Wunderground v.1.15,2013-08-30 19:17:00,
2013-08-30 14:19:00,96.6,72.4,29.77,South,188,3.0,7.0,46,0.00,,,0.00,Wunderground v.1.15,2013-08-30 19:19:00,
2013-08-30 14:20:00,96.7,72.5,29.77,SSE,165,3.0,6.0,46,0.00,,,0.00,Wunderground v.1.15,2013-08-30 19:20:00,
2013-08-30 14:22:00,96.7,72.5,29.77,SSE,164,3.0,6.0,46,0.00,,,0.00,Wunderground v.1.15,2013-08-30 19:22:00,
2013-08-30 14:23:00,96.7,72.5,29.77,SSE,167,3.0,6.0,46,0.00,,,0.00,Wunderground v.1.15,2013-08-30 19:23:00,
2013-08-30 14:24:00,96.7,72.5,29.77,West,271,3.0,6.0,46,0.00,,,0.00,Wunderground v.1.15,2013-08-30 19:24:00,
2013-08-30 14:26:00,96.7,72.5,29.77,SSW,209,4.0,6.0,46,0.00,,,0.00,Wunderground v.1.15,2013-08-30 19:26:00,
2013-08-30 14:27:00,96.7,72.5,29.77,SSW,210,4.0,6.0,46,0.00,,,0.00,Wunderground v.1.15,2013-08-30 19:27:00,
2013-08-30 14:28:00,96.7,72.5,29.77,SSW,196,4.0,6.0,46,0.00,,,0.00,Wunderground v.1.15,2013-08-30 19:28:00,
2013-08-30 14:32:00,96.8,72.6,29.77,SSW,213,3.0,3.0,46,0.00,,,0.00,Wunderground v.1.15,2013-08-30 19:32:00,
2013-08-30 14:33:00,96.8,72.6,29.77,SW,229,3.0,3.0,46,0.00,,,0.00,Wunderground v.1.15,2013-08-30 19:33:00,
2013-08-30 14:35:00,96.8,73.2,29.77,WSW,257,4.0,4.0,47,0.00,,,0.00,Wunderground v.1.15,2013-08-30 19:35:00,
2013-08-30 14:37:00,96.8,73.2,29.77,SW,224,3.0,4.0,47,0.00,,,0.00,Wunderground v.1.15,2013-08-30 19:37:00,
2013-08-30 14:39:00,96.8,73.2,29.76,WSW,242,3.0,4.0,47,0.00,,,0.00,Wunderground v.1.15,2013-08-30 19:39:00,
2013-08-30 14:40:00,96.8,73.9,29.77,South,177,3.0,10.0,48,0.00,,,0.00,Wunderground v.1.15,2013-08-30 19:40:00,
2013-08-30 14:44:00,96.8,73.2,29.76,WSW,248,4.0,10.0,47,0.00,,,0.00,Wunderground v.1.15,2013-08-30 19:44:00,
2013-08-30 14:47:00,96.7,72.5,29.76,SSW,196,4.0,10.0,46,0.00,,,0.00,Wunderground v.1.15,2013-08-30 19:47:00,
2013-08-30 14:48:00,96.7,72.5,29.76,SW,234,4.0,10.0,46,0.00,,,0.00,Wunderground v.1.15,2013-08-30 19:48:00,
2013-08-30 14:50:00,96.6,73.1,29.76,WNW,288,4.0,4.0,47,0.00,,,0.00,Wunderground v.1.15,2013-08-30 19:50:00,
2013-08-30 14:53:00,96.7,73.2,29.76,WSW,238,3.0,4.0,47,0.00,,,0.00,Wunderground v.1.15,2013-08-30 19:53:00,
2013-08-30 14:55:00,96.8,72.0,29.76,South,186,3.0,4.0,45,0.00,,,0.00,Wunderground v.1.15,2013-08-30 19:55:00,
2013-08-30 14:56:00,96.8,72.0,29.76,SSE,163,2.0,9.0,45,0.00,,,0.00,Wunderground v.1.15,2013-08-30 19:56:00,
2013-08-30 15:01:00,96.8,72.6,29.76,South,188,5.0,11.0,46,0.00,,,0.00,Wunderground v.1.15,2013-08-30 20:01:00,
2013-08-30 15:02:00,96.8,72.6,29.76,South,188,5.0,11.0,46,0.00,,,0.00,Wunderground v.1.15,2013-08-30 20:02:00,
2013-08-30 15:03:00,96.8,73.2,29.76,SSW,207,5.0,11.0,47,0.00,,,0.00,Wunderground v.1.15,2013-08-30 20:03:00,
2013-08-30 15:04:00,96.7,73.2,29.76,SSW,192,5.0,11.0,47,0.00,,,0.00,Wunderground v.1.15,2013-08-30 20:04:00,
2013-08-30 15:06:00,96.8,73.9,29.76,South,186,5.0,11.0,48,0.00,,,0.00,Wunderground v.1.15,2013-08-30 20:06:00,
2013-08-30 15:07:00,96.9,74.0,29.75,South,185,5.0,11.0,48,0.00,,,0.00,Wunderground v.1.15,2013-08-30 20:07:00,
2013-08-30 15:09:00,96.9,73.3,29.75,South,180,4.0,11.0,47,0.00,,,0.00,Wunderground v.1.15,2013-08-30 20:09:00,
2013-08-30 15:12:00,97.0,72.8,29.75,West,271,3.0,5.0,46,0.00,,,0.00,Wunderground v.1.15,2013-08-30 20:12:00,
2013-08-30 15:13:00,97.0,73.4,29.75,WNW,300,3.0,5.0,47,0.00,,,0.00,Wunderground v.1.15,2013-08-30 20:13:00,
2013-08-30 15:14:00,97.0,72.8,29.75,SSE,165,3.0,5.0,46,0.00,,,0.00,Wunderground v.1.15,2013-08-30 20:14:00,
2013-08-30 15:15:00,97.0,72.1,29.75,WSW,244,2.0,5.0,45,0.00,,,0.00,Wunderground v.1.15,2013-08-30 20:15:00,
2013-08-30 15:17:00,97.0,72.8,29.75,WSW,241,2.0,5.0,46,0.00,,,0.00,Wunderground v.1.15,2013-08-30 20:17:00,
2013-08-30 15:18:00,97.0,72.1,29.75,WSW,255,3.0,5.0,45,0.00,,,0.00,Wunderground v.1.15,2013-08-30 20:18:00,
2013-08-30 15:19:00,97.0,72.8,29.75,SSW,201,2.0,5.0,46,0.00,,,0.00,Wunderground v.1.15,2013-08-30 20:19:00,
2013-08-30 15:23:00,97.1,73.5,29.75,South,188,3.0,8.0,47,0.00,,,0.00,Wunderground v.1.15,2013-08-30 20:23:00,
2013-08-30 15:24:00,97.0,72.8,29.75,SSW,203,3.0,8.0,46,0.00,,,0.00,Wunderground v.1.15,2013-08-30 20:24:00,
2013-08-30 15:28:00,97.0,72.8,29.75,SW,223,4.0,8.0,46,0.00,,,0.00,Wunderground v.1.15,2013-08-30 20:28:00,
2013-08-30 15:29:00,97.1,72.9,29.75,SSW,193,4.0,8.0,46,0.00,,,0.00,Wunderground v.1.15,2013-08-30 20:29:00,
2013-08-30 15:31:00,97.1,72.9,29.75,SSW,200,4.0,6.0,46,0.00,,,0.00,Wunderground v.1.15,2013-08-30 20:31:00,
2013-08-30 15:35:00,96.9,72.7,29.75,South,188,5.0,9.0,46,0.00,,,0.00,Wunderground v.1.15,2013-08-30 20:35:00,
2013-08-30 15:36:00,96.9,73.3,29.75,SSW,207,5.0,9.0,47,0.00,,,0.00,Wunderground v.1.15,2013-08-30 20:36:00,
2013-08-30 15:37:00,96.9,72.7,29.75,WSW,238,5.0,9.0,46,0.00,,,0.00,Wunderground v.1.15,2013-08-30 20:37:00,
2013-08-30 15:39:00,96.9,73.3,29.75,SSE,158,5.0,9.0,47,0.00,,,0.00,Wunderground v.1.15,2013-08-30 20:39:00,
2013-08-30 15:43:00,97.0,72.8,29.74,WSW,247,4.0,5.0,46,0.00,,,0.00,Wunderground v.1.15,2013-08-30 20:43:00,
2013-08-30 15:47:00,97.1,73.5,29.74,SSW,194,4.0,5.0,47,0.00,,,0.00,Wunderground v.1.15,2013-08-30 20:47:00,
2013-08-30 15:48:00,97.2,73.6,29.74,South,182,3.0,5.0,47,0.00,,,0.00,Wunderground v.1.15,2013-08-30 20:48:00,
2013-08-30 15:49:00,97.2,73.6,29.74,South,186,4.0,6.0,47,0.00,,,0.00,Wunderground v.1.15,2013-08-30 20:49:00,
2013-08-30 15:52:00,97.3,73.7,29.75,SW,215,4.0,7.0,47,0.00,,,0.00,Wunderground v.1.15,2013-08-30 20:52:00,
2013-08-30 15:53:00,97.3,73.1,29.74,South,188,4.0,7.0,46,0.00,,,0.00,Wunderground v.1.15,2013-08-30 20:53:00,
2013-08-30 15:54:00,97.3,73.1,29.74,SW,232,4.0,7.0,46,0.00,,,0.00,Wunderground v.1.15,2013-08-30 20:54:00,
2013-08-30 15:57:00,97.2,72.3,29.74,SW,232,5.0,7.0,45,0.00,,,0.00,Wunderground v.1.15,2013-08-30 20:57:00,
2013-08-30 15:59:00,97.1,72.9,29.74,SSW,213,5.0,7.0,46,0.00,,,0.00,Wunderground v.1.15,2013-08-30 20:59:00,
2013-08-30 16:00:00,97.1,72.9,29.74,SSW,209,5.0,5.0,46,0.00,,,0.00,Wunderground v.1.15,2013-08-30 21:00:00,
2013-08-30 16:03:00,97.1,72.2,29.74,WNW,282,5.0,5.0,45,0.00,,,0.00,Wunderground v.1.15,2013-08-30 21:03:00,
2013-08-30 16:05:00,97.1,72.9,29.74,SW,223,5.0,8.0,46,0.00,,,0.00,Wunderground v.1.15,2013-08-30 21:05:00,
2013-08-30 16:06:00,97.0,72.1,29.74,WSW,242,5.0,8.0,45,0.00,,,0.00,Wunderground v.1.15,2013-08-30 21:06:00,
2013-08-30 16:08:00,97.0,72.8,29.74,SW,232,5.0,8.0,46,0.00,,,0.00,Wunderground v.1.15,2013-08-30 21:08:00,
2013-08-30 16:09:00,97.0,72.8,29.74,South,184,5.0,8.0,46,0.00,,,0.00,Wunderground v.1.15,2013-08-30 21:09:00,
2013-08-30 16:10:00,97.0,72.8,29.74,SSE,155,4.0,4.0,46,0.00,,,0.00,Wunderground v.1.15,2013-08-30 21:10:00,
2013-08-30 16:11:00,97.0,72.8,29.74,SW,235,4.0,4.0,46,0.00,,,0.00,Wunderground v.1.15,2013-08-30 21:11:00,
2013-08-30 16:15:00,97.1,73.5,29.73,SSW,208,3.0,4.0,47,0.00,,,0.00,Wunderground v.1.15,2013-08-30 21:15:00,
2013-08-30 16:16:00,97.1,72.9,29.73,WSW,244,3.0,4.0,46,0.00,,,0.00,Wunderground v.1.15,2013-08-30 21:16:00,
2013-08-30 16:17:00,97.2,73.0,29.73,SSW,202,2.0,4.0,46,0.00,,,0.00,Wunderground v.1.15,2013-08-30 21:17:00,
2013-08-30 16:20:00,97.3,73.1,29.73,WSW,255,2.0,2.0,46,0.00,,,0.00,Wunderground v.1.15,2013-08-30 21:20:00,
2013-08-30 16:21:00,97.3,73.1,29.73,SW,231,2.0,3.0,46,0.00,,,0.00,Wunderground v.1.15,2013-08-30 21:21:00,
2013-08-30 16:22:00,97.3,73.1,29.73,South,182,2.0,9.0,46,0.00,,,0.00,Wunderground v.1.15,2013-08-30 21:22:00,
2013-08-30 16:23:00,97.3,73.1,29.73,SSW,213,3.0,9.0,46,0.00,,,0.00,Wunderground v.1.15,2013-08-30 21:23:00,
2013-08-30 16:24:00,97.3,73.1,29.73,SSW,200,3.0,9.0,46,0.00,,,0.00,Wunderground v.1.15,2013-08-30 21:24:00,
2013-08-30 16:27:00,97.3,73.1,29.73,WSW,244,3.0,9.0,46,0.00,,,0.00,Wunderground v.1.15,2013-08-30 21:27:00,
2013-08-30 16:29:00,97.3,73.1,29.73,South,184,3.0,9.0,46,0.00,,,0.00,Wunderground v.1.15,2013-08-30 21:29:00,
2013-08-30 16:31:00,97.3,73.1,29.72,SSW,205,4.0,10.0,46,0.00,,,0.00,Wunderground v.1.15,2013-08-30 21:31:00,
2013-08-30 16:33:00,97.2,72.3,29.72,SSE,164,3.0,10.0,45,0.00,,,0.00,Wunderground v.1.15,2013-08-30 21:33:00,
2013-08-30 16:36:00,97.0,72.8,29.72,South,187,4.0,10.0,46,0.00,,,0.00,Wunderground v.1.15,2013-08-30 21:36:00,
2013-08-30 16:38:00,96.8,72.6,29.72,West,262,6.0,10.0,46,0.00,,,0.00,Wunderground v.1.15,2013-08-30 21:38:00,
2013-08-30 16:39:00,96.8,72.6,29.72,South,181,6.0,10.0,46,0.00,,,0.00,Wunderground v.1.15,2013-08-30 21:39:00,
2013-08-30 16:40:00,96.7,72.5,29.72,WSW,242,6.0,6.0,46,0.00,,,0.00,Wunderground v.1.15,2013-08-30 21:40:00,
2013-08-30 16:44:00,96.5,72.3,29.72,SSW,200,5.0,6.0,46,0.00,,,0.00,Wunderground v.1.15,2013-08-30 21:44:00,
2013-08-30 16:45:00,96.5,72.3,29.72,SSE,165,5.0,6.0,46,0.00,,,0.00,Wunderground v.1.15,2013-08-30 21:45:00,
2013-08-30 16:46:00,96.5,72.3,29.72,South,179,5.0,6.0,46,0.00,,,0.00,Wunderground v.1.15,2013-08-30 21:46:00,
2013-08-30 16:49:00,96.5,73.0,29.71,SW,217,4.0,9.0,47,0.00,,,0.00,Wunderground v.1.15,2013-08-30 21:49:00,
2013-08-30 16:52:00,96.5,73.6,29.71,SSW,193,4.0,5.0,48,0.00,,,0.00,Wunderground v.1.15,2013-08-30 21:52:00,
2013-08-30 16:57:00,96.5,73.6,29.71,South,173,4.0,6.0,48,0.00,,,0.00,Wunderground v.1.15,2013-08-30 21:57:00,
2013-08-30 16:58:00,96.5,73.0,29.71,SW,234,4.0,6.0,47,0.00,,,0.00,Wunderground v.1.15,2013-08-30 21:58:00,
2013-08-30 16:59:00,96.5,73.6,29.71,SSW,196,4.0,6.0,48,0.00,,,0.00,Wunderground v.1.15,2013-08-30 21:59:00,
2013-08-30 17:00:00,96.5,73.0,29.71,South,186,4.0,4.0,47,0.00,,,0.00,Wunderground v.1.15,2013-08-30 22:00:00,
2013-08-30 17:04:00,96.4,72.9,29.71,West,260,4.0,9.0,47,0.00,,,0.00,Wunderground v.1.15,2013-08-30 22:04:00,
2013-08-30 17:05:00,96.4,73.5,29.71,SSW,197,4.0,9.0,48,0.00,,,0.00,Wunderground v.1.15,2013-08-30 22:05:00,
2013-08-30 17:06:00,96.4,73.5,29.71,WSW,247,5.0,9.0,48,0.00,,,0.00,Wunderground v.1.15,2013-08-30 22:06:00,
2013-08-30 17:08:00,96.4,73.5,29.71,SW,227,5.0,9.0,48,0.00,,,0.00,Wunderground v.1.15,2013-08-30 22:08:00,
2013-08-30 17:10:00,96.3,72.8,29.71,SW,232,5.0,5.0,47,0.00,,,0.00,Wunderground v.1.15,2013-08-30 22:10:00,
2013-08-30 17:12:00,96.3,73.4,29.71,SSW,204,5.0,5.0,48,0.00,,,0.00,Wunderground v.1.15,2013-08-30 22:12:00,
2013-08-30 17:13:00,96.3,73.4,29.71,SW,225,5.0,5.0,48,0.00,,,0.00,Wunderground v.1.15,2013-08-30 22:13:00,
2013-08-30 17:16:00,96.4,73.5,29.71,SSW,197,4.0,5.0,48,0.00,,,0.00,Wunderground v.1.15,2013-08-30 22:16:00,
2013-08-30 17:17:00,96.4,73.5,29.71,WSW,257,4.0,5.0,48,0.00,,,0.00,Wunderground v.1.15,2013-08-30 22:17:00,
2013-08-30 17:20:00,96.4,73.5,29.71,SSE,167,3.0,3.0,48,0.00,,,0.00,Wunderground v.1.15,2013-08-30 22:20:00,
2013-08-30 17:21:00,96.3,73.4,29.71,SSE,167,3.0,3.0,48,0.00,,,0.00,Wunderground v.1.15,2013-08-30 22:21:00,
2013-08-30 17:25:00,96.2,73.9,29.71,South,186,3.0,4.0,49,0.00,,,0.00,Wunderground v.1.15,2013-08-30 22:25:00,
2013-08-30 17:26:00,96.2,73.9,29.71,SSW,202,3.0,6.0,49,0.00,,,0.00,Wunderground v.1.15,2013-08-30 22:26:00,
2013-08-30 17:27:00,96.1,73.8,29.71,South,188,3.0,6.0,49,0.00,,,0.00,Wunderground v.1.15,2013-08-30 22:27:00,
2013-08-30 17:29:00,96.0,73.8,29.71,South,188,3.0,6.0,49,0.00,,,0.00,Wunderground v.1.15,2013-08-30 22:29:00,
2013-08-30 17:31:00,96.0,74.4,29.72,South,181,2.0,4.0,50,0.00,,,0.00,Wunderground v.1.15,2013-08-30 22:31:00,
2013-08-30 17:33:00,96.0,73.8,29.72,South,185,3.0,5.0,49,0.00,,,0.00,Wunderground v.1.15,2013-08-30 22:33:00,
2013-08-30 17:34:00,96.0,73.8,29.71,South,185,3.0,5.0,49,0.00,,,0.00,Wunderground v.1.15,2013-08-30 22:34:00,
2013-08-30 17:35:00,95.9,73.7,29.71,ENE,61,2.0,5.0,49,0.00,,,0.00,Wunderground v.1.15,2013-08-30 22:35:00,
2013-08-30 17:38:00,95.9,74.3,29.71,SSW,206,2.0,5.0,50,0.00,,,0.00,Wunderground v.1.15,2013-08-30 22:38:00,
2013-08-30 17:39:00,95.9,74.3,29.71,SSW,207,2.0,5.0,50,0.00,,,0.00,Wunderground v.1.15,2013-08-30 22:39:00,
2013-08-30 17:40:00,95.9,74.3,29.71,SSW,193,2.0,3.0,50,0.00,,,0.00,Wunderground v.1.15,2013-08-30 22:40:00,
2013-08-30 17:43:00,95.8,74.2,29.71,SW,232,2.0,5.0,50,0.00,,,0.00,Wunderground v.1.15,2013-08-30 22:43:00,
2013-08-30 17:45:00,95.8,74.2,29.71,SSW,197,3.0,6.0,50,0.00,,,0.00,Wunderground v.1.15,2013-08-30 22:45:00,
2013-08-30 17:47:00,95.8,74.2,29.71,South,185,3.0,6.0,50,0.00,,,0.00,Wunderground v.1.15,2013-08-30 22:47:00,
2013-08-30 17:51:00,95.5,73.9,29.71,South,178,3.0,5.0,50,0.00,,,0.00,Wunderground v.1.15,2013-08-30 22:51:00,
2013-08-30 17:52:00,95.5,73.9,29.71,SSW,200,3.0,6.0,50,0.00,,,0.00,Wunderground v.1.15,2013-08-30 22:52:00,
2013-08-30 17:54:00,95.2,73.6,29.71,SSW,201,3.0,6.0,50,0.00,,,0.00,Wunderground v.1.15,2013-08-30 22:54:00,
2013-08-30 17:55:00,95.1,73.5,29.71,SSW,200,3.0,6.0,50,0.00,,,0.00,Wunderground v.1.15,2013-08-30 22:55:00,
2013-08-30 17:57:00,94.9,73.9,29.71,SSW,210,3.0,6.0,51,0.00,,,0.00,Wunderground v.1.15,2013-08-30 22:57:00,
2013-08-30 18:00:00,94.5,74.2,29.71,SSW,196,2.0,2.0,52,0.00,,,0.00,Wunderground v.1.15,2013-08-30 23:00:00,
2013-08-30 18:02:00,94.2,73.9,29.71,South,185,2.0,2.0,52,0.00,,,0.00,Wunderground v.1.15,2013-08-30 23:02:00,
2013-08-30 18:03:00,94.1,73.8,29.71,South,186,2.0,2.0,52,0.00,,,0.00,Wunderground v.1.15,2013-08-30 23:03:00,
2013-08-30 18:05:00,93.9,74.2,29.72,South,186,1.0,2.0,53,0.00,,,0.00,Wunderground v.1.15,2013-08-30 23:05:00,
2013-08-30 18:06:00,93.7,74.0,29.72,South,186,1.0,2.0,53,0.00,,,0.00,Wunderground v.1.15,2013-08-30 23:06:00,
2013-08-30 18:11:00,93.1,74.0,29.72,SSW,194,1.0,1.0,54,0.00,,,0.00,Wunderground v.1.15,2013-08-30 23:11:00,
2013-08-30 18:14:00,93.0,73.9,29.73,SSW,197,1.0,1.0,54,0.00,,,0.00,Wunderground v.1.15,2013-08-30 23:14:00,
2013-08-30 18:15:00,92.8,73.7,29.73,SSW,197,1.0,1.0,54,0.00,,,0.00,Wunderground v.1.15,2013-08-30 23:15:00,
2013-08-30 18:16:00,92.6,74.1,29.73,SSW,197,1.0,2.0,55,0.00,,,0.00,Wunderground v.1.15,2013-08-30 23:16:00,
2013-08-30 18:22:00,92.2,73.7,29.74,SSW,197,0.0,0.0,55,0.00,,,0.00,Wunderground v.1.15,2013-08-30 23:22:00,
2013-08-30 18:24:00,92.0,74.1,29.74,SSW,197,0.0,0.0,56,0.00,,,0.00,Wunderground v.1.15,2013-08-30 23:24:00,
2013-08-30 18:25:00,92.0,74.1,29.74,SSW,197,0.0,0.0,56,0.00,,,0.00,Wunderground v.1.15,2013-08-30 23:25:00,
2013-08-30 18:29:00,91.8,74.4,29.74,SSW,197,0.0,0.0,57,0.00,,,0.00,Wunderground v.1.15,2013-08-30 23:29:00,
2013-08-30 18:30:00,91.7,74.3,29.74,SSW,197,0.0,0.0,57,0.00,,,0.00,Wunderground v.1.15,2013-08-30 23:30:00,
2013-08-30 18:31:00,91.7,74.3,29.74,SSW,197,0.0,0.0,57,0.00,,,0.00,Wunderground v.1.15,2013-08-30 23:31:00,
2013-08-30 18:32:00,91.6,74.2,29.74,SSW,197,0.0,0.0,57,0.00,,,0.00,Wunderground v.1.15,2013-08-30 23:32:00,
2013-08-30 18:34:00,91.5,74.1,29.74,SSW,197,0.0,0.0,57,0.00,,,0.00,Wunderground v.1.15,2013-08-30 23:34:00,
2013-08-30 18:37:00,91.4,74.5,29.74,SSW,197,0.0,0.0,58,0.00,,,0.00,Wunderground v.1.15,2013-08-30 23:37:00,
2013-08-30 18:39:00,91.3,74.4,29.74,SSW,197,0.0,0.0,58,0.00,,,0.00,Wunderground v.1.15,2013-08-30 23:39:00,
2013-08-30 18:40:00,91.2,75.4,29.74,SSW,197,0.0,0.0,60,0.00,,,0.00,Wunderground v.1.15,2013-08-30 23:40:00,
2013-08-30 18:41:00,91.1,75.3,29.74,SSW,197,0.0,0.0,60,0.00,,,0.00,Wunderground v.1.15,2013-08-30 23:41:00,
2013-08-30 18:45:00,90.8,76.0,29.74,SSW,197,0.0,0.0,62,0.00,,,0.00,Wunderground v.1.15,2013-08-30 23:45:00,
2013-08-30 18:47:00,90.5,76.2,29.73,SSW,197,0.0,0.0,63,0.00,,,0.00,Wunderground v.1.15,2013-08-30 23:47:00,
2013-08-30 18:48:00,90.4,75.6,29.73,SSW,197,0.0,0.0,62,0.00,,,0.00,Wunderground v.1.15,2013-08-30 23:48:00,
2013-08-30 18:50:00,90.1,75.3,29.73,SSW,197,0.0,0.0,62,0.00,,,0.00,Wunderground v.1.15,2013-08-30 23:50:00,
2013-08-30 18:52:00,89.8,75.0,29.73,SSW,197,0.0,0.0,62,0.00,,,0.00,Wunderground v.1.15,2013-08-30 23:52:00,
2013-08-30 18:53:00,89.7,74.9,29.73,SSW,197,0.0,0.0,62,0.00,,,0.00,Wunderground v.1.15,2013-08-30 23:53:00,
2013-08-30 18:54:00,89.6,74.9,29.73,SSW,197,0.0,0.0,62,0.00,,,0.00,Wunderground v.1.15,2013-08-30 23:54:00,
2013-08-30 18:58:00,89.2,74.5,29.73,SSW,197,0.0,0.0,62,0.00,,,0.00,Wunderground v.1.15,2013-08-30 23:58:00,
2013-08-30 19:00:00,89.0,74.8,29.74,SSW,197,0.0,0.0,63,0.00,,,0.00,Wunderground v.1.15,2013-08-31 00:00:00,
2013-08-30 19:02:00,88.9,74.7,29.74,SSW,197,0.0,0.0,63,0.00,,,0.00,Wunderground v.1.15,2013-08-31 00:02:00,
2013-08-30 19:04:00,88.8,74.1,29.74,SSW,197,0.0,0.0,62,0.00,,,0.00,Wunderground v.1.15,2013-08-31 00:04:00,
2013-08-30 19:06:00,88.6,73.9,29.74,SSW,197,0.0,0.0,62,0.00,,,0.00,Wunderground v.1.15,2013-08-31 00:06:00,
2013-08-30 19:08:00,88.5,74.3,29.74,SSW,197,0.0,0.0,63,0.00,,,0.00,Wunderground v.1.15,2013-08-31 00:08:00,
2013-08-30 19:09:00,88.5,74.3,29.74,SSW,197,0.0,0.0,63,0.00,,,0.00,Wunderground v.1.15,2013-08-31 00:09:00,
2013-08-30 19:10:00,88.5,74.8,29.74,SSW,197,0.0,0.0,64,0.00,,,0.00,Wunderground v.1.15,2013-08-31 00:10:00,
2013-08-30 19:12:00,88.4,74.7,29.74,SSW,197,0.0,0.0,64,0.00,,,0.00,Wunderground v.1.15,2013-08-31 00:12:00,
2013-08-30 19:14:00,88.3,74.6,29.74,South,189,0.0,3.0,64,0.00,,,0.00,Wunderground v.1.15,2013-08-31 00:14:00,
2013-08-30 19:16:00,88.2,74.0,29.75,ENE,78,1.0,4.0,63,0.00,,,0.00,Wunderground v.1.15,2013-08-31 00:16:00,
2013-08-30 19:17:00,88.2,74.0,29.75,East,89,1.0,4.0,63,0.00,,,0.00,Wunderground v.1.15,2013-08-31 00:17:00,
2013-08-30 19:18:00,88.1,73.9,29.75,ENE,65,2.0,6.0,63,0.00,,,0.00,Wunderground v.1.15,2013-08-31 00:18:00,
2013-08-30 19:19:00,88.0,73.3,29.75,ENE,66,2.0,6.0,62,0.00,,,0.00,Wunderground v.1.15,2013-08-31 00:19:00,
2013-08-30 19:23:00,87.0,71.9,29.76,ESE,113,4.0,5.0,61,0.00,,,0.00,Wunderground v.1.15,2013-08-31 00:23:00,
2013-08-30 19:25:00,86.4,71.8,29.76,NE,49,4.0,9.0,62,0.00,,,0.00,Wunderground v.1.15,2013-08-31 00:25:00,
2013-08-30 19:26:00,85.8,71.7,29.76,ENE,60,4.0,9.0,63,0.00,,,0.00,Wunderground v.1.15,2013-08-31 00:26:00,
2013-08-30 19:31:00,84.1,71.1,29.76,East,79,4.0,6.0,65,0.00,,,0.00,Wunderground v.1.15,2013-08-31 00:31:00,
2013-08-30 19:32:00,83.9,71.3,29.76,East,97,5.0,7.0,66,0.00,,,0.00,Wunderground v.1.15,2013-08-31 00:32:00,
2013-08-30 19:34:00,83.2,71.1,29.76,ENE,78,5.0,7.0,67,0.00,,,0.00,Wunderground v.1.15,2013-08-31 00:34:00,
2013-08-30 19:36:00,82.5,70.9,29.76,East,99,4.0,7.0,68,0.00,,,0.00,Wunderground v.1.15,2013-08-31 00:36:00,
2013-08-30 19:40:00,81.7,71.0,29.76,East,99,5.0,5.0,70,0.00,,,0.00,Wunderground v.1.15,2013-08-31 00:40:00,
2013-08-30 19:41:00,81.3,71.0,29.75,SE,128,4.0,5.0,71,0.00,,,0.00,Wunderground v.1.15,2013-08-31 00:41:00,
2013-08-30 19:42:00,81.2,70.9,29.75,ESE,104,4.0,6.0,71,0.00,,,0.00,Wunderground v.1.15,2013-08-31 00:42:00,
2013-08-30 19:43:00,81.0,70.7,29.75,ESE,121,4.0,6.0,71,0.00,,,0.00,Wunderground v.1.15,2013-08-31 00:43:00,
2013-08-30 19:45:00,80.5,70.6,29.75,East,97,4.0,6.0,72,0.00,,,0.00,Wunderground v.1.15,2013-08-31 00:45:00,
2013-08-30 19:46:00,80.2,70.8,29.77,East,96,4.0,6.0,73,0.00,,,0.00,Wunderground v.1.15,2013-08-31 00:46:00,
2013-08-30 19:47:00,80.2,70.8,29.77,ENE,66,4.0,6.0,73,0.00,,,0.00,Wunderground v.1.15,2013-08-31 00:47:00,
2013-08-30 19:49:00,79.8,70.8,29.77,East,86,4.0,10.0,74,0.00,,,0.00,Wunderground v.1.15,2013-08-31 00:49:00,
2013-08-30 19:51:00,79.4,70.8,29.77,SE,138,4.0,5.0,75,0.00,,,0.00,Wunderground v.1.15,2013-08-31 00:51:00,
2013-08-30 19:52:00,79.4,70.8,29.77,ENE,75,4.0,7.0,75,0.00,,,0.00,Wunderground v.1.15,2013-08-31 00:52:00,
2013-08-30 19:55:00,79.0,70.8,29.78,ESE,102,4.0,7.0,76,0.00,,,0.00,Wunderground v.1.15,2013-08-31 00:55:00,
2013-08-30 19:57:00,78.7,70.9,29.78,East,88,4.0,7.0,77,0.00,,,0.00,Wunderground v.1.15,2013-08-31 00:57:00,
2013-08-30 19:59:00,78.5,71.1,29.79,ENE,76,4.0,7.0,78,0.00,,,0.00,Wunderground v.1.15,2013-08-31 00:59:00,
2013-08-30 20:01:00,78.2,71.2,29.79,East,88,4.0,4.0,79,0.00,,,0.00,Wunderground v.1.15,2013-08-31 01:01:00,
2013-08-30 20:04:00,77.9,71.2,29.79,ENE,66,4.0,6.0,80,0.00,,,0.00,Wunderground v.1.15,2013-08-31 01:04:00,
2013-08-30 20:07:00,77.6,70.9,29.78,NE,56,4.0,6.0,80,0.00,,,0.00,Wunderground v.1.15,2013-08-31 01:07:00,
2013-08-30 20:08:00,77.6,71.3,29.78,East,82,3.0,6.0,81,0.00,,,0.00,Wunderground v.1.15,2013-08-31 01:08:00,
2013-08-30 20:09:00,77.5,71.2,29.78,ENE,71,3.0,6.0,81,0.00,,,0.00,Wunderground v.1.15,2013-08-31 01:09:00,
2013-08-30 20:10:00,77.4,71.1,29.79,ENE,64,3.0,3.0,81,0.00,,,0.00,Wunderground v.1.15,2013-08-31 01:10:00,
2013-08-30 20:13:00,77.1,71.5,29.79,NE,45,2.0,5.0,83,0.00,,,0.00,Wunderground v.1.15,2013-08-31 01:13:00,
2013-08-30 20:14:00,77.0,71.4,29.79,NE,42,2.0,5.0,83,0.00,,,0.00,Wunderground v.1.15,2013-08-31 01:14:00,
2013-08-30 20:15:00,77.0,71.4,29.79,NE,44,2.0,5.0,83,0.00,,,0.00,Wunderground v.1.15,2013-08-31 01:15:00,
2013-08-30 20:16:00,76.9,71.7,29.79,ENE,57,3.0,5.0,84,0.00,,,0.00,Wunderground v.1.15,2013-08-31 01:16:00,
2013-08-30 20:21:00,76.5,71.7,29.79,NNE,24,3.0,4.0,85,0.00,,,0.00,Wunderground v.1.15,2013-08-31 01:21:00,
2013-08-30 20:22:00,76.4,71.6,29.79,NNE,24,3.0,4.0,85,0.00,,,0.00,Wunderground v.1.15,2013-08-31 01:22:00,
2013-08-30 20:23:00,76.4,71.6,29.79,NNE,23,3.0,4.0,85,0.00,,,0.00,Wunderground v.1.15,2013-08-31 01:23:00,
2013-08-30 20:24:00,76.3,71.5,29.80,NNE,20,3.0,4.0,85,0.00,,,0.00,Wunderground v.1.15,2013-08-31 01:24:00,
2013-08-30 20:27:00,76.1,71.6,29.80,North,11,3.0,9.0,86,0.00,,,0.00,Wunderground v.1.15,2013-08-31 01:27:00,
2013-08-30 20:28:00,76.0,71.5,29.81,NNE,26,3.0,9.0,86,0.00,,,0.00,Wunderground v.1.15,2013-08-31 01:28:00,
2013-08-30 20:30:00,75.9,71.4,29.81,ENE,65,4.0,4.0,86,0.00,,,0.00,Wunderground v.1.15,2013-08-31 01:30:00,
2013-08-30 20:32:00,75.8,71.3,29.81,NE,46,4.0,4.0,86,0.00,,,0.00,Wunderground v.1.15,2013-08-31 01:32:00,
2013-08-30 20:33:00,75.7,71.2,29.80,ENE,61,4.0,4.0,86,0.00,,,0.00,Wunderground v.1.15,2013-08-31 01:33:00,
2013-08-30 20:34:00,75.7,71.2,29.80,East,85,4.0,5.0,86,0.00,,,0.00,Wunderground v.1.15,2013-08-31 01:34:00,
2013-08-30 20:37:00,75.4,70.9,29.79,NE,46,4.0,5.0,86,0.00,,,0.00,Wunderground v.1.15,2013-08-31 01:37:00,
2013-08-30 20:38:00,75.4,70.9,29.78,NE,52,4.0,5.0,86,0.00,,,0.00,Wunderground v.1.15,2013-08-31 01:38:00,
2013-08-30 20:39:00,75.3,70.8,29.79,East,98,4.0,5.0,86,0.00,,,0.00,Wunderground v.1.15,2013-08-31 01:39:00,
2013-08-30 20:41:00,75.1,70.3,29.79,East,99,4.0,9.0,85,0.00,,,0.00,Wunderground v.1.15,2013-08-31 01:41:00,
2013-08-30 20:45:00,74.9,70.1,29.79,ENE,64,4.0,9.0,85,0.00,,,0.00,Wunderground v.1.15,2013-08-31 01:45:00,
2013-08-30 20:46:00,74.8,70.0,29.79,NE,45,3.0,9.0,85,0.00,,,0.00,Wunderground v.1.15,2013-08-31 01:46:00,
2013-08-30 20:47:00,74.8,70.0,29.79,NE,46,3.0,9.0,85,0.00,,,0.00,Wunderground v.1.15,2013-08-31 01:47:00,
2013-08-30 20:49:00,74.7,69.9,29.79,NNE,32,3.0,9.0,85,0.00,,,0.01,Wunderground v.1.15,2013-08-31 01:49:00,
2013-08-30 20:50:00,74.7,70.2,29.80,NNE,27,3.0,5.0,86,0.00,,,0.01,Wunderground v.1.15,2013-08-31 01:50:00,
2013-08-30 20:52:00,74.6,70.1,29.80,North,355,3.0,6.0,86,0.00,,,0.01,Wunderground v.1.15,2013-08-31 01:52:00,
2013-08-30 20:53:00,74.5,70.0,29.80,NW,320,4.0,6.0,86,0.00,,,0.01,Wunderground v.1.15,2013-08-31 01:53:00,
2013-08-30 20:55:00,74.4,70.3,29.81,NW,323,4.0,6.0,87,0.10,,,0.02,Wunderground v.1.15,2013-08-31 01:55:00,
2013-08-30 20:57:00,74.1,70.0,29.81,NNE,14,4.0,9.0,87,0.30,,,0.03,Wunderground v.1.15,2013-08-31 01:57:00,
2013-08-30 20:58:00,74.0,69.5,29.82,NNW,333,5.0,9.0,86,0.32,,,0.04,Wunderground v.1.15,2013-08-31 01:58:00,
2013-08-30 20:59:00,73.9,69.8,29.83,NW,319,5.0,9.0,87,0.46,,,0.05,Wunderground v.1.15,2013-08-31 01:59:00,
2013-08-30 21:03:00,73.5,69.7,29.85,WNW,284,4.0,5.0,88,0.26,,,0.06,Wunderground v.1.15,2013-08-31 02:03:00,
2013-08-30 21:05:00,73.3,69.5,29.84,WSW,257,3.0,5.0,88,0.18,,,0.07,Wunderground v.1.15,2013-08-31 02:05:00,
2013-08-30 21:07:00,73.1,69.7,29.84,WSW,250,3.0,5.0,89,0.18,,,0.07,Wunderground v.1.15,2013-08-31 02:07:00,
2013-08-30 21:08:00,73.0,69.6,29.85,WSW,254,2.0,5.0,89,0.15,,,0.07,Wunderground v.1.15,2013-08-31 02:08:00,
2013-08-30 21:13:00,72.5,69.1,29.81,SSW,196,2.0,7.0,89,2.18,,,0.25,Wunderground v.1.15,2013-08-31 02:13:00,
2013-08-30 21:14:00,72.4,69.0,29.81,South,185,2.0,7.0,89,0.89,,,0.27,Wunderground v.1.15,2013-08-31 02:14:00,
2013-08-30 21:15:00,72.3,68.9,29.80,SSE,155,3.0,7.0,89,1.03,,,0.29,Wunderground v.1.15,2013-08-31 02:15:00,
2013-08-30 21:17:00,72.1,69.0,29.79,South,177,3.0,7.0,90,0.83,,,0.32,Wunderground v.1.15,2013-08-31 02:17:00,
2013-08-30 21:19:00,71.9,68.8,29.79,South,186,4.0,7.0,90,0.31,,,0.33,Wunderground v.1.15,2013-08-31 02:19:00,
2013-08-30 21:20:00,71.8,68.7,29.79,SSW,211,4.0,4.0,90,0.20,,,0.33,Wunderground v.1.15,2013-08-31 02:20:00,
2013-08-30 21:24:00,71.6,68.8,29.79,South,178,5.0,9.0,91,0.17,,,0.34,Wunderground v.1.15,2013-08-31 02:24:00,
2013-08-30 21:26:00,71.6,69.2,29.78,SSE,165,5.0,9.0,92,0.10,,,0.34,Wunderground v.1.15,2013-08-31 02:26:00,
2013-08-30 21:29:00,71.5,69.1,29.78,South,184,5.0,9.0,92,0.07,,,0.34,Wunderground v.1.15,2013-08-31 02:29:00,
2013-08-30 21:32:00,71.5,69.1,29.77,South,184,4.0,5.0,92,0.05,,,0.34,Wunderground v.1.15,2013-08-31 02:32:00,
2013-08-30 21:35:00,71.4,69.0,29.76,South,184,3.0,5.0,92,0.04,,,0.34,Wunderground v.1.15,2013-08-31 02:35:00,
2013-08-30 21:37:00,71.3,68.9,29.77,South,184,2.0,5.0,92,0.04,,,0.34,Wunderground v.1.15,2013-08-31 02:37:00,
2013-08-30 21:38:00,71.3,68.9,29.77,South,184,1.0,5.0,92,0.00,,,0.34,Wunderground v.1.15,2013-08-31 02:38:00,
2013-08-30 21:39:00,71.3,68.9,29.77,South,184,1.0,5.0,92,0.00,,,0.34,Wunderground v.1.15,2013-08-31 02:39:00,
2013-08-30 21:42:00,71.2,68.8,29.77,South,184,1.0,1.0,92,0.00,,,0.34,Wunderground v.1.15,2013-08-31 02:42:00,
2013-08-30 21:44:00,71.2,69.1,29.77,South,184,1.0,3.0,93,0.00,,,0.34,Wunderground v.1.15,2013-08-31 02:44:00,
2013-08-30 21:45:00,71.2,69.1,29.77,South,182,1.0,4.0,93,0.00,,,0.34,Wunderground v.1.15,2013-08-31 02:45:00,
2013-08-30 21:46:00,71.3,69.2,29.77,SE,133,1.0,4.0,93,0.00,,,0.34,Wunderground v.1.15,2013-08-31 02:46:00,
2013-08-30 21:47:00,71.3,69.2,29.78,SE,132,2.0,4.0,93,0.00,,,0.34,Wunderground v.1.15,2013-08-31 02:47:00,
2013-08-30 21:49:00,71.3,69.2,29.78,SE,132,2.0,4.0,93,0.00,,,0.34,Wunderground v.1.15,2013-08-31 02:49:00,
2013-08-30 21:50:00,71.3,69.2,29.79,SE,132,2.0,2.0,93,0.00,,,0.34,Wunderground v.1.15,2013-08-31 02:50:00,
2013-08-30 21:53:00,71.3,69.2,29.79,SSE,151,2.0,3.0,93,0.00,,,0.34,Wunderground v.1.15,2013-08-31 02:53:00,
2013-08-30 21:55:00,71.2,69.1,29.78,SSE,151,1.0,3.0,93,0.00,,,0.34,Wunderground v.1.15,2013-08-31 02:55:00,
2013-08-30 21:57:00,71.2,69.1,29.79,SSE,151,0.0,3.0,93,0.00,,,0.34,Wunderground v.1.15,2013-08-31 02:57:00,
2013-08-30 22:01:00,71.1,69.0,29.80,SSE,150,0.0,2.0,93,0.00,,,0.34,Wunderground v.1.15,2013-08-31 03:01:00,
2013-08-30 22:02:00,71.2,69.1,29.80,SSE,150,0.0,2.0,93,0.00,,,0.34,Wunderground v.1.15,2013-08-31 03:02:00,
2013-08-30 22:03:00,71.2,69.1,29.80,SSE,150,0.0,2.0,93,0.00,,,0.34,Wunderground v.1.15,2013-08-31 03:03:00,
2013-08-30 22:06:00,71.2,69.1,29.80,SSE,150,0.0,2.0,93,0.00,,,0.34,Wunderground v.1.15,2013-08-31 03:06:00,
2013-08-30 22:08:00,71.2,69.1,29.80,SSE,150,0.0,2.0,93,0.00,,,0.34,Wunderground v.1.15,2013-08-31 03:08:00,
2013-08-30 22:12:00,71.2,69.4,29.80,SSE,150,1.0,3.0,94,0.00,,,0.34,Wunderground v.1.15,2013-08-31 03:12:00,
2013-08-30 22:14:00,71.2,69.4,29.79,SSE,150,1.0,3.0,94,0.00,,,0.34,Wunderground v.1.15,2013-08-31 03:14:00,
2013-08-30 22:17:00,71.2,69.4,29.79,SSE,150,1.0,3.0,94,0.00,,,0.34,Wunderground v.1.15,2013-08-31 03:17:00,
2013-08-30 22:18:00,71.2,69.4,29.79,SSE,150,1.0,3.0,94,0.00,,,0.34,Wunderground v.1.15,2013-08-31 03:18:00,
2013-08-30 22:19:00,71.2,69.4,29.78,SSE,150,1.0,3.0,94,0.00,,,0.34,Wunderground v.1.15,2013-08-31 03:19:00,
2013-08-30 22:23:00,71.2,69.4,29.78,SSE,150,1.0,1.0,94,0.00,,,0.34,Wunderground v.1.15,2013-08-31 03:23:00,
2013-08-30 22:25:00,71.2,69.4,29.78,SSE,150,1.0,1.0,94,0.00,,,0.34,Wunderground v.1.15,2013-08-31 03:25:00,
2013-08-30 22:26:00,71.2,69.4,29.78,SSE,150,1.0,1.0,94,0.00,,,0.34,Wunderground v.1.15,2013-08-31 03:26:00,
2013-08-30 22:27:00,71.2,69.4,29.78,SSE,150,0.0,1.0,94,0.00,,,0.34,Wunderground v.1.15,2013-08-31 03:27:00,
2013-08-30 22:29:00,71.2,69.4,29.77,SSE,150,0.0,1.0,94,0.00,,,0.34,Wunderground v.1.15,2013-08-31 03:29:00,
2013-08-30 22:30:00,71.2,69.4,29.77,SSE,150,0.0,0.0,94,0.00,,,0.34,Wunderground v.1.15,2013-08-31 03:30:00,
2013-08-30 22:31:00,71.2,69.4,29.77,SSE,150,0.0,1.0,94,0.00,,,0.34,Wunderground v.1.15,2013-08-31 03:31:00,
2013-08-30 22:32:00,71.2,69.4,29.77,SSE,150,0.0,1.0,94,0.00,,,0.34,Wunderground v.1.15,2013-08-31 03:32:00,
2013-08-30 22:33:00,71.2,69.4,29.77,SSE,150,0.0,1.0,94,0.00,,,0.34,Wunderground v.1.15,2013-08-31 03:33:00,
2013-08-30 22:35:00,71.3,69.5,29.77,SSE,150,0.0,1.0,94,0.00,,,0.34,Wunderground v.1.15,2013-08-31 03:35:00,
2013-08-30 22:40:00,71.2,69.4,29.78,SSE,150,1.0,1.0,94,0.00,,,0.34,Wunderground v.1.15,2013-08-31 03:40:00,
2013-08-30 22:41:00,71.3,69.5,29.77,SSE,150,1.0,1.0,94,0.00,,,0.34,Wunderground v.1.15,2013-08-31 03:41:00,
2013-08-30 22:44:00,71.2,69.4,29.77,SSE,150,1.0,1.0,94,0.00,,,0.34,Wunderground v.1.15,2013-08-31 03:44:00,
2013-08-30 22:47:00,71.2,69.4,29.77,SSE,150,1.0,1.0,94,0.00,,,0.34,Wunderground v.1.15,2013-08-31 03:47:00,
2013-08-30 22:48:00,71.2,69.4,29.77,SSE,150,0.0,1.0,94,0.00,,,0.34,Wunderground v.1.15,2013-08-31 03:48:00,
2013-08-30 22:50:00,71.2,69.4,29.77,SSE,150,0.0,0.0,94,0.00,,,0.34,Wunderground v.1.15,2013-08-31 03:50:00,
2013-08-30 22:51:00,71.2,69.4,29.77,SSE,150,0.0,0.0,94,0.00,,,0.34,Wunderground v.1.15,2013-08-31 03:51:00,
2013-08-30 22:52:00,71.2,69.4,29.77,SSE,150,0.0,0.0,94,0.00,,,0.34,Wunderground v.1.15,2013-08-31 03:52:00,
2013-08-30 22:55:00,71.2,69.4,29.77,SSE,150,0.0,0.0,94,0.00,,,0.34,Wunderground v.1.15,2013-08-31 03:55:00,
2013-08-30 22:56:00,71.3,69.5,29.77,SSE,150,0.0,0.0,94,0.00,,,0.34,Wunderground v.1.15,2013-08-31 03:56:00,
2013-08-30 22:58:00,71.3,69.5,29.77,SE,144,0.0,4.0,94,0.00,,,0.34,Wunderground v.1.15,2013-08-31 03:58:00,
2013-08-30 22:59:00,71.3,69.8,29.77,ESE,120,1.0,4.0,95,0.00,,,0.34,Wunderground v.1.15,2013-08-31 03:59:00,
2013-08-30 23:01:00,71.3,69.5,29.77,ESE,103,1.0,3.0,94,0.00,,,0.34,Wunderground v.1.15,2013-08-31 04:01:00,
2013-08-30 23:02:00,71.3,69.5,29.77,ESE,103,2.0,3.0,94,0.00,,,0.34,Wunderground v.1.15,2013-08-31 04:02:00,
2013-08-30 23:03:00,71.3,69.5,29.77,ESE,103,2.0,3.0,94,0.00,,,0.34,Wunderground v.1.15,2013-08-31 04:03:00,
2013-08-30 23:04:00,71.3,69.5,29.77,ESE,103,2.0,3.0,94,0.00,,,0.34,Wunderground v.1.15,2013-08-31 04:04:00,
2013-08-30 23:06:00,71.3,69.5,29.77,ESE,103,2.0,3.0,94,0.00,,,0.34,Wunderground v.1.15,2013-08-31 04:06:00,
2013-08-30 23:08:00,71.3,69.5,29.77,ESE,103,2.0,3.0,94,0.00,,,0.34,Wunderground v.1.15,2013-08-31 04:08:00,
2013-08-30 23:09:00,71.3,69.5,29.77,ESE,103,1.0,3.0,94,0.00,,,0.34,Wunderground v.1.15,2013-08-31 04:09:00,
2013-08-30 23:11:00,71.2,69.4,29.77,ESE,103,1.0,1.0,94,0.00,,,0.34,Wunderground v.1.15,2013-08-31 04:11:00,
2013-08-30 23:15:00,71.2,69.4,29.77,ESE,103,0.0,1.0,94,0.00,,,0.34,Wunderground v.1.15,2013-08-31 04:15:00,
2013-08-30 23:16:00,71.1,69.3,29.77,ESE,103,0.0,1.0,94,0.00,,,0.34,Wunderground v.1.15,2013-08-31 04:16:00,
2013-08-30 23:17:00,71.2,69.4,29.77,ESE,103,0.0,1.0,94,0.00,,,0.34,Wunderground v.1.15,2013-08-31 04:17:00,
2013-08-30 23:18:00,71.1,69.3,29.77,ESE,103,0.0,1.0,94,0.00,,,0.34,Wunderground v.1.15,2013-08-31 04:18:00,
2013-08-30 23:21:00,71.1,69.3,29.77,ESE,103,0.0,3.0,94,0.00,,,0.34,Wunderground v.1.15,2013-08-31 04:21:00,
2013-08-30 23:23:00,71.1,69.3,29.77,ESE,103,1.0,3.0,94,0.00,,,0.34,Wunderground v.1.15,2013-08-31 04:23:00,
2013-08-30 23:24:00,71.1,69.3,29.77,ESE,103,1.0,3.0,94,0.00,,,0.34,Wunderground v.1.15,2013-08-31 04:24:00,
2013-08-30 23:29:00,71.1,69.6,29.76,ESE,103,1.0,3.0,95,0.00,,,0.34,Wunderground v.1.15,2013-08-31 04:29:00,
2013-08-30 23:31:00,71.1,69.6,29.76,ESE,103,0.0,1.0,95,0.00,,,0.34,Wunderground v.1.15,2013-08-31 04:31:00,
2013-08-30 23:32:00,71.1,69.6,29.77,ESE,103,0.0,1.0,95,0.00,,,0.34,Wunderground v.1.15,2013-08-31 04:32:00,
2013-08-30 23:33:00,71.1,69.6,29.76,ESE,103,0.0,2.0,95,0.00,,,0.34,Wunderground v.1.15,2013-08-31 04:33:00,
2013-08-30 23:37:00,71.0,69.5,29.76,ESE,103,1.0,2.0,95,0.00,,,0.34,Wunderground v.1.15,2013-08-31 04:37:00,
2013-08-30 23:38:00,71.0,69.5,29.76,ESE,103,1.0,2.0,95,0.00,,,0.34,Wunderground v.1.15,2013-08-31 04:38:00,
2013-08-30 23:41:00,71.0,69.5,29.77,ESE,103,1.0,1.0,95,0.00,,,0.34,Wunderground v.1.15,2013-08-31 04:41:00,
2013-08-30 23:42:00,71.0,69.5,29.77,ESE,103,1.0,1.0,95,0.00,,,0.34,Wunderground v.1.15,2013-08-31 04:42:00,
2013-08-30 23:43:00,71.0,69.5,29.77,ESE,103,0.0,1.0,95,0.00,,,0.34,Wunderground v.1.15,2013-08-31 04:43:00,
2013-08-30 23:48:00,70.9,69.4,29.76,ESE,103,0.0,1.0,95,0.00,,,0.34,Wunderground v.1.15,2013-08-31 04:48:00,
2013-08-30 23:49:00,70.9,69.4,29.76,ESE,103,0.0,1.0,95,0.00,,,0.34,Wunderground v.1.15,2013-08-31 04:49:00,
2013-08-30 23:50:00,70.9,69.4,29.76,ESE,103,0.0,1.0,95,0.00,,,0.34,Wunderground v.1.15,2013-08-31 04:50:00,
2013-08-30 23:54:00,70.8,69.3,29.76,ESE,103,0.0,1.0,95,0.00,,,0.34,Wunderground v.1.15,2013-08-31 04:54:00,
2013-08-30 23:56:00,70.8,69.3,29.77,ESE,103,0.0,1.0,95,0.00,,,0.34,Wunderground v.1.15,2013-08-31 04:56:00,
2013-08-30 23:57:00,70.8,69.3,29.77,ESE,103,0.0,1.0,95,0.00,,,0.34,Wunderground v.1.15,2013-08-31 04:57:00,
2013-08-30 23:58:00,70.8,69.3,29.77,East,94,0.0,5.0,95,0.00,,,0.34,Wunderground v.1.15,2013-08-31 04:58:00,